GFSFLT1_prec_cloud_003.txt.gz
Cloud_Cover
0 0 0 1 2 5 5 5 5 5 5 5 5 5 3 4 4 5 4 0 3 4 1 0 0 0 1 1 4 5 5 1
0 0 0 1 4 0 0 5 5 5 5 5 5 5 5 5 0 0 0 0 0 0 0 12 65 16 5 5 1 5 2 0
0 0 0 0 5 5 5 5 5 30 47 13 5 3 4 1 8 81 67 52 11 26 42 7 5 2 1 2 2 0 5 5
0 0 0 4 5 5 5 5 5 5 5 4 5 5 26 81 46 8 5 5 27 17 5 2 0 0 0 0 0 0 2 5
0 0 1 5 5 5 5 5 5 5 50 65 37 58 42 6 5 10 10 5 5 5 5 5 1 0 0 0 0 0 5 13
5 5 5 5 5 5 7 42 81 88 76 47 5 5 5 5 5 5 5 0 0 1 0 0 0 4 2 0 2 5 4 84
5 5 5 5 33 61 78 100 99 79 23 5 5 5 5 5 5 5 5 5 5 5 1 5 5 5 5 4 17 23 36 6
5 5 5 23 76 100 99 100 51 14 44 98 77 23 5 7 22 5 5 5 4 5 5 5 5 5 4 5 13 100 100 98
67 68 87 100 100 97 83 36 38 79 100 100 44 69 78 52 39 5 18 5 5 5 5 4 5 5 22 41 6 31 73 99
51 6 62 100 100 100 100 100 100 100 98 97 31 5 16 19 75 36 8 7 2 0 3 5 32 39 100 100 100 99 99 100
24 82 100 100 97 100 100 91 95 72 32 29 74 100 88 58 90 46 5 4 2 5 21 71 69 87 100 100 100 100 100 100
97 61 93 93 80 36 14 22 24 68 100 100 100 98 85 99 6 5 5 4 5 77 94 100 100 100 100 100 100 100 100 100
27 6 12 8 5 10 21 7 99 100 100 100 82 80 93 5 5 5 5 9 78 74 97 100 100 100 100 100 100 100 100 100
65 42 5 5 5 23 91 100 100 100 100 79 68 92 58 9 26 26 41 100 100 100 99 90 100 100 100 100 100 100 100 100
6 5 5 66 100 100 100 100 100 100 100 99 48 8 62 74 91 90 100 100 100 99 81 67 85 88 100 100 100 100 100 100
79 92 100 100 100 100 100 100 100 100 100 98 95 37 100 100 100 100 100 100 100 97 55 77 81 62 89 100 100 100 100 100
97 100 100 100 100 100 100 100 70 66 100 100 100 30 49 5 5 6 87 100 100 100 100 98 90 82 69 94 98 100 100 100
100 100 100 100 100 96 98 94 96 95 87 95 46 14 5 5 5 5 5 5 5 5 5 5 12 28 56 91 66 25 43 53
100 100 100 99 22 10 49 98 73 68 95 24 28 61 30 5 5 5 2 5 5 7 6 9 17 19 5 13 38 98 100 100

GFSFLT1_prec_cloud_006.txt.gz
Cloud_Cover
0 0 0 0 0 0 4 5 2 5 5 5 28 5 38 5 5 5 5 4 1 0 0 2 0 0 1 0 1 3 5 5
0 0 0 0 0 0 5 5 5 5 80 83 75 65 5 5 5 4 5 5 4 3 4 17 12 6 50 17 5 5 5 5
0 0 0 0 3 5 5 25 80 92 99 94 99 36 5 5 5 5 5 7 9 10 5 51 96 72 65 94 65 26 5 5
0 1 0 2 5 30 97 100 100 100 87 90 73 62 36 5 5 5 23 80 9 5 5 5 7 39 78 98 57 12 5 7
5 3 5 5 59 100 100 98 49 12 99 67 73 22 21 37 84 86 60 60 5 5 5 63 53 21 31 40 7 5 5 5
0 5 5 15 93 60 21 38 79 89 68 73 30 46 85 86 84 8 21 31 2 5 5 5 6 3 1 3 5 5 5 5
4 5 6 24 28 31 84 87 72 65 83 38 62 35 82 100 63 35 11 5 5 30 48 80 17 5 5 5 5 6 4 42
5 5 5 16 28 80 92 100 90 94 100 98 91 100 98 32 35 10 5 54 100 100 69 8 5 5 5 14 61 93 97 90
5 5 5 55 62 75 22 98 99 96 82 89 81 18 7 5 26 91 100 100 100 94 5 6 39 48 99 100 98 100 100 100
5 5 68 5 6 31 67 20 43 48 30 13 60 78 92 100 100 100 100 100 36 5 58 59 27 32 77 80 97 99 97 100
5 22 64 98 62 6 5 14 28 24 5 7 36 17 23 82 100 100 35 6 41 51 24 53 73 74 91 67 90 98 100 100
98 56 35 10 5 5 5 5 5 29 95 100 100 100 100 100 100 45 31 49 36 51 82 100 100 100 100 100 100 100 100 100
73 41 5 5 5 5 5 37 100 100 100 100 100 100 100 100 52 74 100 98 100 100 100 88 98 100 100 100 100 100 100 100
6 18 12 18 84 85 100 100 100 100 100 100 100 100 61 32 89 94 98 100 99 97 100 100 100 100 100 100 100 100 100 100
84 90 87 93 100 100 100 100 100 100 100 100 77 18 67 100 66 62 75 90 100 100 100 100 100 100 96 100 100 100 100 100
74 91 86 100 100 100 100 100 100 91 71 62 5 5 10 87 49 20 13 6 5 5 5 5 5 5 8 25 25 53 100 100
100 99 100 100 100 100 100 100 100 92 5 5 5 5 45 23 6 6 15 5 5 5 5 5 6 20 11 14 31 31 34 71
99 100 100 100 100 100 100 59 6 5 5 45 89 100 60 58 68 100 99 14 5 5 5 5 5 57 11 4 5 5 5 33
100 100 94 100 99 100 36 5 5 5 10 88 100 99 98 100 100 84 68 19 5 5 22 75 82 94 5 5 5 6 96 100

GFSFLT1_prec_cloud_012.txt.gz
Cloud_Cover
100 90 87 94 19 6 39 54 1 66 5 5 5 5 5 53 71 5 5 5 5 5 5 5 27 5 4 0 4 0 2 5
16 7 5 0 0 0 0 5 75 42 5 5 72 84 100 83 95 34 13 31 65 97 22 10 65 5 5 2 0 1 5 5
0 0 0 0 0 0 2 11 61 79 23 66 94 100 77 93 70 60 58 5 10 58 58 51 60 85 51 0 5 0 3 3
0 0 0 0 0 5 76 100 100 100 52 25 87 79 86 77 84 100 94 87 100 96 66 2 0 0 1 3 6 0 23 100
0 0 0 4 78 100 100 89 66 78 100 29 56 16 87 100 32 10 5 5 20 45 79 81 44 7 5 5 5 5 5 6
0 0 5 5 54 100 97 58 5 5 5 76 47 43 11 17 17 50 100 100 100 100 86 42 33 41 76 61 91 100 100 81
0 2 5 5 17 8 72 6 5 5 8 82 94 100 100 100 100 100 100 100 100 100 100 100 100 100 100 100 89 100 79 94
16 14 23 5 5 7 5 54 47 75 63 97 100 100 100 100 100 100 100 100 100 100 100 100 76 43 12 88 97 100 100 98
5 2 5 5 26 11 12 84 100 100 100 75 86 100 100 100 100 100 100 100 100 100 100 98 41 37 35 41 100 100 75 99
100 94 100 65 56 16 94 95 100 100 100 100 64 72 100 100 100 100 100 98 82 97 100 100 48 5 88 100 100 100 96 88
97 84 14 53 58 48 100 100 100 100 100 100 100 100 100 100 100 100 100 64 38 20 5 10 36 50 50 70 69 90 95 90
6 19 60 89 100 100 100 100 100 100 100 100 100 94 36 8 5 5 5 4 0 72 76 7 35 5 16 78 97 100 100 100
5 99 94 94 99 61 6 9 98 99 45 12 6 40 74 5 5 5 3 5 5 5 25 73 70 91 45 8 5 6 26 29
20 5 56 5 5 13 99 92 9 25 17 5 5 5 5 5 2 38 5 5 11 5 5 5 5 5 5 5 5 25 5 5
36 5 5 6 5 27 67 57 56 79 98 51 5 5 5 0 5 4 5 5 5 5 32 38 5 5 5 9 16 5 5 1
15 8 17 5 8 16 67 86 90 24 5 100 89 79 42 5 5 2 22 5 5 5 5 5 5 35 71 17 3 0 0 0
5 5 5 9 32 88 84 34 100 7 6 100 53 6 100 95 100 5 5 78 61 11 56 99 6 6 6 5 5 5 5 5
5 5 46 96 70 39 32 75 75 4 2 90 16 82 100 53 100 76 25 8 27 95 100 99 29 5 5 5 5 62 59 4
5 62 46 90 27 5 5 5 2 2 95 86 12 61 6 100 100 100 5 38 94 100 100 92 24 5 5 5 5 5 5 5

GFSFLT1_prec_cloud_015.txt.gz
Cloud_Cover
5 5 5 5 4 0 0 0 0 4 5 4 5 5 5 5 5 23 5 5 5 71 86 40 61 24 69 34 3 4 1 4
0 0 4 5 5 5 4 2 0 7 0 5 63 16 64 29 5 76 83 83 11 78 6 5 5 4 0 0 1 5 5 5
0 0 1 4 5 6 60 36 60 6 5 5 19 64 9 82 90 76 83 56 37 5 1 0 0 0 2 5 4 4 5 5
0 0 0 0 0 4 41 100 99 59 5 25 38 10 5 36 85 61 89 92 92 4 4 3 0 0 0 0 4 3 2 4
0 0 0 0 4 5 5 17 100 81 71 8 5 34 25 62 89 45 50 74 50 34 9 5 5 3 5 5 5 5 5 5
0 0 0 0 0 0 5 5 5 14 4 31 88 94 95 54 84 100 71 7 52 41 7 40 93 100 100 97 100 98 68 73
0 0 0 0 0 4 4 2 0 0 3 4 59 97 98 100 100 100 100 100 100 100 99 75 14 5 5 5 5 4 5 37
0 0 4 3 3 5 5 64 100 71 38 5 5 7 17 36 38 42 96 89 38 12 6 5 3 0 1 6 23 99 94 100
5 5 20 65 100 86 63 100 100 100 100 99 92 87 94 100 100 100 98 28 6 5 4 3 4 5 7 11 33 76 100 41
10 5 5 4 9 13 36 80 88 86 100 99 100 100 100 99 87 21 7 9 4 5 3 3 5 5 5 9 59 42 28 86
5 5 5 5 5 5 5 6 17 56 23 19 37 88 96 37 5 5 3 1 0 0 0 0 5 5 5 5 14 38 88 100
55 18 5 5 5 5 5 19 20 17 16 6 20 5 5 5 5 0 0 0 0 0 0 1 5 5 68 59 60 5 3 5
5 3 5 5 20 5 5 5 5 5 5 5 5 22 41 77 5 5 72 1 18 43 6 5 0 0 5 0 5 5 5 5
5 9 80 76 8 5 5 5 5 9 63 95 39 53 6 76 100 94 100 81 100 97 70 68 3 0 1 5 16 90 6 5
5 5 5 5 5 5 7 24 82 77 34 40 27 16 5 5 48 93 100 100 100 100 63 82 3 5 5 5 13 5 4 0
5 5 5 5 7 25 8 11 5 5 1 5 5 5 34 66 46 50 100 100 100 37 84 100 1 5 4 5 5 5 0 0
5 5 5 5 5 5 5 5 5 3 0 0 0 54 83 85 86 100 100 100 100 99 100 39 13 2 5 87 64 5 3 3
5 5 5 5 4 5 4 5 5 5 5 0 0 5 6 81 64 100 100 100 95 96 98 59 5 59 55 99 31 5 5 5
5 5 4 4 5 4 3 5 5 3 0 0 1 4 2 4 49 100 100 100 100 95 95 5 69 91 23 5 5 6 7 53

GFSFLT1_prec_cloud_018.txt.gz
Cloud_Cover
2 5 5 5 5 13 12 47 100 100 97 5 5 0 62 38 6 5 5 31 93 82 95 81 68 5 2 0 0 0 4 5
1 5 0 3 5 5 5 56 18 12 74 69 4 4 37 49 6 21 82 100 53 22 59 26 5 5 0 0 0 0 0 1
0 0 6 100 68 72 1 0 5 61 21 27 22 28 86 98 100 97 78 97 95 18 62 15 5 2 0 0 0 0 0 1
20 5 58 66 3 0 0 1 0 12 66 99 98 100 100 69 18 42 87 100 79 29 1 4 5 5 1 0 2 4 0 1
54 30 8 44 0 0 0 5 24 41 14 21 97 99 100 99 95 8 5 5 18 5 5 5 5 5 5 3 0 2 5 28
100 100 100 78 0 0 0 0 0 1 5 60 67 100 84 49 57 86 100 100 100 100 98 30 5 5 2 0 0 0 5 5
81 98 84 3 0 0 0 0 1 3 5 54 100 100 100 100 100 100 100 100 96 46 31 15 5 5 2 2 3 24 24 69
11 5 6 2 5 5 5 18 17 17 54 20 14 40 83 98 100 93 100 99 89 95 74 40 1 0 0 0 1 5 5 45
70 5 5 0 0 7 33 100 100 98 100 77 32 51 91 100 100 100 100 77 1 5 5 0 0 0 0 0 0 0 4 5
5 5 5 5 6 7 47 28 5 5 5 5 4 5 5 5 2 3 5 0 0 4 2 5 9 5 0 0 3 0 0 4
14 5 11 5 8 5 5 5 20 2 0 2 5 5 4 5 5 3 3 21 8 86 87 79 98 79 48 29 69 60 2 0
99 100 100 100 23 5 5 4 0 3 5 5 4 2 5 5 5 13 80 60 99 100 100 100 100 100 77 63 100 5 0 4
99 90 80 5 0 0 5 5 5 5 5 5 5 5 5 5 5 0 11 55 41 100 100 94 24 100 83 99 86 0 5 90
100 74 5 5 5 5 5 5 5 5 5 5 5 5 5 4 2 2 72 99 100 93 100 100 100 78 98 74 0 1 5 5
5 5 5 5 5 5 6 24 5 5 5 6 5 5 5 5 4 5 31 59 100 100 95 100 100 9 25 0 5 5 5 5
93 77 74 5 31 42 6 5 5 5 57 6 5 68 0 0 3 18 38 76 51 100 100 100 100 67 1 66 79 5 5 4
98 25 5 5 5 6 5 5 5 5 5 5 1 0 0 0 0 5 23 57 100 100 100 100 100 31 77 82 5 5 5 5
5 5 5 6 11 5 5 5 5 5 0 1 2 0 0 0 4 33 68 78 100 100 100 100 71 16 14 5 5 9 43 5
5 5 5 5 5 5 16 5 5 5 5 2 0 0 1 0 5 13 76 55 100 100 98 36 55 5 5 9 51 5 5 5

GFSFLT1_prec_cloud_021.txt.gz
Cloud_Cover
64 36 31 70 86 71 100 100 100 100 100 100 99 80 57 58 26 20 86 84 92 97 93 41 5 5 5 5 0 0 0 0
4 0 2 5 5 100 100 100 100 100 100 97 80 5 43 14 90 100 100 100 100 93 5 5 11 5 5 0 0 0 0 0
88 8 25 38 99 82 55 32 100 99 78 6 10 76 78 100 97 79 95 91 86 82 35 5 3 0 2 2 0 0 0 0
23 98 93 5 5 4 3 2 1 3 5 5 23 25 5 5 34 11 5 5 2 1 5 8 20 5 5 5 0 0 0 0
66 29 5 75 5 5 5 5 5 4 5 44 68 63 12 5 5 5 5 5 19 24 5 100 76 26 5 5 5 0 0 0
9 82 60 99 86 7 10 5 1 1 5 8 99 100 100 75 29 24 100 99 76 76 100 98 81 67 3 0 0 5 5 6
14 28 100 31 84 41 35 13 5 7 5 16 63 91 94 100 100 100 100 100 99 79 25 4 2 0 0 2 9 36 4 5
5 100 100 100 99 32 26 7 100 91 57 38 45 95 100 100 100 100 88 10 5 5 5 3 1 0 1 3 5 7 42 67
100 100 100 97 38 5 5 5 15 16 62 93 88 74 100 72 8 5 5 5 4 5 5 5 5 86 90 63 99 100 98 89
0 0 1 5 5 8 5 5 5 5 1 2 5 5 1 5 5 5 5 1 5 7 13 29 94 66 68 100 62 92 83 3
4 5 5 19 37 46 30 5 5 5 3 4 5 5 5 5 5 2 3 1 54 100 100 92 100 91 100 100 100 95 49 98
24 33 22 5 26 34 51 5 28 5 1 5 5 5 5 5 5 2 14 62 100 88 54 91 100 100 100 100 100 100 100 100
87 93 100 100 100 96 92 100 86 6 5 5 0 4 5 2 2 5 16 4 5 5 5 56 100 100 100 100 79 100 92 35
5 49 93 99 99 82 100 97 13 1 6 6 5 4 1 5 5 0 0 0 0 5 95 49 98 99 100 93 60 3 7 66
5 5 75 95 95 98 13 7 43 54 7 5 5 5 5 4 0 0 0 1 15 100 13 12 98 99 99 100 88 27 61 5
90 77 78 100 98 50 5 10 5 5 5 5 5 5 5 0 0 0 1 70 100 32 63 100 22 99 100 100 47 6 5 5
83 97 100 100 85 5 5 5 5 5 6 6 5 5 0 0 0 0 5 12 40 100 96 87 100 100 100 61 5 5 5 5
100 83 88 95 14 7 5 5 5 5 5 5 5 5 2 0 5 5 16 95 92 77 36 81 94 97 5 10 6 5 6 13
38 25 10 50 7 6 5 36 23 5 5 5 5 5 1 6 39 5 5 27 51 6 35 99 65 5 5 5 14 5 5 5

GFSFLT1_prec_cloud_024.txt.gz
Cloud_Cover
95 100 100 100 96 54 25 100 100 100 100 100 100 98 100 100 100 100 92 48 100 29 79 40 5 5 5 5 5 1 0 0
90 100 92 48 53 48 100 100 100 100 100 100 100 100 100 100 32 8 69 9 5 3 5 5 5 5 2 1 5 3 0 0
46 38 36 20 49 100 42 50 21 30 52 74 34 17 12 10 5 2 0 0 3 13 77 30 5 3 5 5 12 5 5 3
21 15 30 43 21 27 67 79 45 5 5 2 0 0 0 0 0 0 0 5 5 5 5 5 36 5 5 4 0 0 0 0
5 55 54 46 69 78 45 8 72 46 0 0 0 0 0 0 0 4 21 44 5 12 59 24 5 3 0 0 0 0 0 4
5 83 100 100 85 95 90 99 88 86 59 6 0 5 5 5 4 52 99 99 98 85 8 5 4 0 0 0 2 5 1 3
84 93 99 100 92 100 73 64 92 94 97 95 88 7 2 2 9 57 25 27 5 4 2 5 3 3 4 5 5 5 5 5
5 59 94 95 100 100 92 48 90 35 5 33 28 5 5 5 4 5 2 4 5 2 4 5 5 5 7 32 5 27 18 5
95 98 100 10 10 5 5 5 5 5 5 5 5 5 3 5 0 5 5 5 5 5 5 5 60 96 5 5 5 48 98 98
5 5 0 5 5 5 5 16 81 66 5 5 4 3 5 5 5 7 55 61 7 5 26 77 89 54 17 87 77 100 38 32
4 4 5 5 5 5 5 63 21 5 14 18 4 5 10 36 88 92 49 6 5 5 29 4 8 65 95 93 98 100 87 7
5 1 5 5 5 19 86 34 22 49 93 7 57 20 13 23 41 9 0 0 0 0 2 71 89 88 100 99 70 85 89 14
4 5 5 94 95 100 73 44 87 100 84 99 19 5 5 5 5 0 0 0 0 0 5 100 100 98 23 98 22 59 86 87
5 5 73 92 96 42 33 99 100 95 100 52 5 5 5 5 4 5 5 5 5 5 73 75 100 6 80 32 87 78 99 18
5 16 72 97 83 87 100 63 92 95 42 5 5 5 5 5 7 5 5 2 2 4 72 100 100 100 100 100 96 80 5 5
5 5 96 74 91 99 8 60 18 5 5 5 6 19 8 47 5 5 5 4 6 98 54 94 95 100 100 88 16 5 5 5
44 97 86 100 97 74 6 5 5 5 5 20 47 39 33 48 32 5 0 12 100 100 100 99 57 17 6 46 5 5 5 5
92 100 100 100 100 74 73 37 69 76 31 49 16 48 100 5 5 3 5 9 98 75 89 5 5 6 14 5 6 5 5 5
100 100 80 36 66 92 100 100 100 100 72 83 99 100 27 5 5 2 9 98 83 16 38 45 34 5 5 5 5 5 5 5

GFSFLT1_prec_cloud_027.txt.gz
Cloud_Cover
100 100 100 100 100 100 93 100 98 100 100 100 100 100 100 100 100 100 100 100 82 5 3 0 3 5 6 74 84 70 11 5
100 100 100 91 90 85 100 66 100 100 100 100 100 100 100 100 100 100 98 2 0 0 4 5 5 4 2 1 3 1 1 2
91 82 84 47 23 40 68 70 76 100 100 100 80 36 60 100 93 28 0 0 0 0 2 1 5 5 5 4 0 0 0 0
76 69 42 18 5 5 28 27 12 30 70 22 0 0 0 0 0 0 2 5 2 37 65 11 5 4 4 4 5 5 1 2
19 17 5 5 30 5 35 8 22 69 5 3 5 5 45 19 5 0 2 15 4 5 5 5 5 5 5 3 0 0 3 0
0 1 5 32 34 5 5 28 26 25 87 20 14 5 5 2 0 0 0 4 28 10 5 5 3 0 0 5 5 5 5 2
3 5 5 16 5 83 97 96 82 95 84 29 5 5 5 5 5 4 4 1 0 0 0 0 0 5 5 5 5 44 5 5
5 22 57 93 25 20 21 5 22 48 5 5 5 5 35 5 1 2 0 0 0 0 4 5 7 6 83 5 5 5 5 5
5 84 100 90 3 5 53 5 5 30 52 12 12 93 72 5 3 5 0 5 8 44 30 24 5 58 3 5 5 6 62 56
81 69 5 1 0 2 5 5 73 76 83 15 8 32 35 5 5 5 5 21 76 7 5 5 0 0 9 96 5 37 50 75
5 1 4 0 2 5 5 60 97 97 11 6 42 98 17 5 5 8 55 16 5 5 4 3 5 5 79 94 27 75 25 30
0 5 0 5 5 5 7 56 92 8 48 98 69 5 6 12 5 5 5 5 5 5 5 5 3 5 41 14 21 13 63 48
3 2 5 5 51 76 73 98 11 81 100 93 41 16 6 5 5 5 5 5 3 5 5 5 5 78 25 44 5 52 99 15
5 5 15 67 96 72 100 87 91 100 99 29 44 5 5 5 5 5 5 5 5 5 10 46 52 55 99 83 94 99 66 59
10 23 95 100 100 100 99 100 100 93 19 43 5 5 23 72 66 37 25 88 31 35 28 92 8 98 87 100 100 66 22 5
54 13 88 100 100 84 98 100 57 41 7 5 9 80 100 100 100 94 100 23 16 44 98 100 98 100 54 37 5 5 5 4
5 14 100 100 100 100 100 73 5 5 25 37 33 86 100 100 100 100 24 21 27 66 43 76 95 69 64 5 5 5 5 3
49 85 100 100 89 96 100 73 60 59 47 92 100 100 100 100 100 24 14 38 5 5 71 6 62 18 5 5 5 5 5 4
71 99 100 100 99 100 91 84 85 94 100 100 100 100 100 100 41 45 100 16 5 5 16 35 5 5 5 5 5 5 5 5

GFSFLT1_prec_cloud_030.txt.gz
Cloud_Cover
100 100 100 100 95 88 97 100 96 100 100 100 100 100 100 100 100 100 100 100 100 100 100 100 100 100 76 14 0 0 0 0
100 100 32 12 62 98 100 99 100 100 100 100 100 100 100 100 100 100 100 100 100 100 98 24 1 0 2 2 0 0 0 3
47 15 83 88 41 85 67 57 90 18 73 93 97 90 100 100 96 99 100 100 78 0 0 2 0 0 1 3 6 10 5 5
36 75 89 80 97 100 97 53 20 29 90 93 91 63 23 70 45 11 5 3 0 1 0 0 4 16 44 20 12 5 5 5
40 44 52 19 21 92 35 5 5 32 77 70 5 5 5 5 5 5 5 5 4 0 1 1 1 1 0 0 4 5 5 5
4 1 5 5 5 5 5 40 68 28 6 5 5 5 5 5 5 80 87 63 5 4 0 0 0 0 0 4 5 6 5 6
4 4 5 5 5 5 5 5 5 5 5 5 5 5 17 5 28 100 98 18 5 3 0 0 2 5 3 30 71 76 100 93
3 5 5 5 5 5 5 5 5 5 5 6 54 63 72 81 75 71 68 8 5 4 3 5 5 5 6 57 82 36 81 86
2 5 5 5 52 5 1 1 5 5 5 5 56 44 45 93 93 92 0 0 4 5 5 5 5 24 85 84 91 34 99 88
1 5 5 5 5 0 0 5 5 14 30 94 95 97 93 93 45 5 5 27 21 5 5 5 5 5 36 89 46 70 84 100
4 5 5 5 0 2 5 5 7 11 100 100 91 30 81 96 56 42 58 8 5 5 5 6 5 5 46 34 88 95 87 100
5 5 5 5 5 5 5 26 93 91 100 97 51 82 96 79 51 27 5 5 5 5 5 5 5 13 90 99 85 82 100 100
5 5 5 5 6 55 89 67 62 67 96 27 90 95 50 5 5 5 5 5 10 5 5 5 38 100 98 92 86 100 99 100
5 5 5 5 8 92 38 37 63 100 41 94 86 57 9 5 5 5 48 44 8 32 85 75 98 100 52 96 92 99 100 96
5 5 5 5 88 98 56 41 92 80 87 100 65 100 15 5 20 54 6 14 34 6 28 13 10 80 98 89 86 80 100 99
5 5 5 57 97 78 86 96 100 79 98 95 100 38 11 62 49 68 46 52 44 10 69 73 41 84 73 85 89 100 78 35
16 20 5 32 93 100 99 100 93 99 100 100 82 60 65 63 73 9 61 65 61 84 80 86 85 82 5 5 5 5 5 5
5 5 5 83 100 100 100 100 100 100 100 95 88 88 94 76 75 95 56 97 93 91 100 99 91 99 5 5 5 5 5 5
11 19 67 100 100 100 100 100 100 100 100 98 99 99 100 100 100 75 100 100 100 100 100 93 91 75 5 5 3 4 6 5

GFSFLT1_prec_cloud_033.txt.gz
Cloud_Cover
100 100 100 100 100 99 100 100 100 98 86 94 94 100 100 100 100 100 100 100 100 100 100 100 85 94 99 79 56 6 2 0
100 100 100 100 100 100 100 100 84 32 77 76 95 44 82 100 100 40 57 68 100 100 100 100 100 100 100 100 7 0 0 0
100 100 100 100 97 100 100 97 73 97 83 22 5 13 46 76 4 49 62 62 2 5 5 4 25 3 0 0 2 3 0 3
100 100 81 61 97 100 100 100 41 98 78 24 47 80 57 5 14 61 71 5 5 5 5 5 5 0 0 4 5 4 5 5
21 24 70 100 100 100 80 56 55 9 5 5 5 5 82 38 5 14 5 5 15 20 5 2 0 3 1 5 5 5 5 9
63 24 52 64 4 7 78 14 5 5 5 5 5 5 5 5 10 17 16 35 7 5 4 4 2 5 5 5 8 54 5 27
26 16 2 0 2 5 25 5 6 2 5 5 5 5 5 10 76 5 47 56 38 16 5 4 5 5 5 5 62 5 96 20
0 0 0 0 4 5 7 5 5 1 2 5 5 5 5 44 36 76 70 73 42 77 5 5 5 5 5 5 20 11 38 35
0 0 0 3 5 5 5 5 0 0 2 5 21 50 25 59 94 60 68 95 100 6 5 5 5 5 5 5 62 93 54 15
0 0 0 1 5 5 5 6 21 32 5 5 5 5 43 100 60 14 82 59 5 5 5 5 5 5 5 5 38 78 96 98
0 1 5 5 5 10 14 27 40 5 5 5 9 65 100 62 5 42 99 28 7 5 5 5 5 5 5 5 53 21 66 67
5 5 5 5 15 19 5 5 5 5 5 10 32 90 100 44 14 97 60 5 5 5 5 5 5 5 5 5 5 21 36 78
15 13 5 5 25 15 5 5 5 42 92 62 94 100 37 15 62 87 5 5 5 5 5 5 5 7 5 55 95 100 78 83
6 29 23 18 11 5 5 10 40 36 100 64 100 100 99 74 29 15 6 5 5 5 5 5 6 16 74 83 99 84 92 95
7 28 30 5 5 5 39 68 99 98 88 91 100 85 53 57 88 64 9 6 9 8 5 39 47 83 96 100 100 100 96 88
23 100 37 5 13 18 7 22 95 100 99 100 91 96 98 94 95 99 45 77 92 5 66 70 99 100 100 100 74 98 67 15
71 96 8 5 9 5 43 54 96 100 100 100 100 100 100 100 99 100 100 98 56 100 97 99 100 94 39 21 24 5 5 5
6 5 5 21 8 53 62 73 100 100 100 100 100 100 100 100 100 100 100 100 100 100 100 100 100 100 80 99 80 5 5 18
20 5 5 42 60 52 63 96 100 100 100 100 98 100 100 100 100 100 100 100 100 100 100 100 100 95 100 38 5 3 5 62

GFSFLT1_prec_cloud_036.txt.gz
Cloud_Cover
100 100 100 100 97 31 58 47 33 68 52 69 69 99 99 81 39 5 6 49 93 94 100 98 58 71 84 97 50 32 19 0
100 97 50 100 100 100 100 100 100 100 100 100 100 93 45 21 5 5 2 0 0 0 0 0 0 0 0 0 0 0 0 0
91 100 100 100 95 100 100 100 87 100 100 38 7 5 5 5 2 0 1 5 5 5 0 3 1 5 3 0 0 0 0 0
100 100 100 100 100 100 100 100 100 76 100 30 6 3 0 0 3 5 5 5 5 0 4 5 5 5 4 0 0 0 3 0
100 100 100 100 100 100 100 78 73 27 100 5 4 0 0 0 0 0 5 5 2 5 5 5 5 5 0 0 0 2 0 3
24 6 40 100 100 100 94 22 6 92 29 2 0 57 98 83 5 18 54 19 5 5 3 5 5 5 2 3 2 21 78 34
31 83 35 26 21 1 0 16 80 11 5 6 4 3 5 5 5 5 23 15 74 6 5 5 5 0 0 1 3 6 5 4
4 90 62 76 53 85 43 41 4 5 5 0 0 0 2 5 5 5 73 97 89 5 5 29 4 0 0 2 5 5 5 10
6 46 91 31 0 8 5 1 2 5 5 4 5 5 5 5 5 72 82 100 37 5 41 8 5 5 5 5 5 5 81 71
6 0 0 0 0 0 0 3 5 5 5 5 5 5 5 5 34 70 100 100 86 5 5 12 40 5 5 5 5 5 36 32
0 0 0 0 0 0 3 5 5 27 5 5 5 5 67 48 63 100 100 92 15 10 60 100 78 45 7 5 5 13 5 8
0 0 0 0 0 4 5 6 60 20 5 8 5 5 45 84 98 100 100 99 69 39 99 100 100 100 51 20 78 5 5 31
0 0 0 4 19 38 71 47 52 6 5 5 19 100 100 100 100 100 100 85 94 100 100 100 100 98 79 100 64 62 74 100
3 34 36 70 16 99 42 100 78 5 6 11 89 100 100 100 100 100 93 89 100 100 100 69 98 100 100 88 32 9 93 100
3 67 100 91 84 49 68 63 11 10 17 73 100 100 100 100 100 100 99 100 100 100 93 97 100 100 88 87 88 100 100 60
5 74 56 88 87 29 56 93 48 18 23 97 100 100 100 100 100 100 100 100 100 100 100 100 83 83 88 100 100 100 51 98
5 5 5 11 97 100 74 100 80 21 61 100 100 100 100 100 100 100 100 100 100 100 98 71 100 87 100 100 100 42 99 5
4 5 8 32 92 100 100 100 95 49 98 100 100 100 100 100 100 100 100 100 100 100 100 100 100 99 100 100 100 96 22 60
5 34 79 6 59 100 100 97 88 100 100 100 100 100 100 100 100 100 100 100 100 100 100 100 100 99 100 100 100 53 97 0

GFSFLT1_prec_cloud_039.txt.gz
Cloud_Cover
100 100 100 100 100 100 100 100 100 100 100 100 100 100 100 100 83 67 76 81 95 100 17 5 5 1 0 0 0 0 0 0
100 100 100 100 100 100 100 36 75 93 100 100 100 92 100 100 100 100 100 100 100 88 5 0 0 0 0 0 0 0 0 0
100 100 100 100 100 100 100 71 100 93 90 100 100 100 100 63 43 31 7 5 5 5 5 0 0 0 0 1 0 0 0 0
100 76 100 89 86 52 92 100 100 100 48 52 73 100 100 38 6 5 3 5 2 5 5 0 0 0 0 5 0 0 0 0
100 100 100 100 100 100 100 100 100 100 100 100 100 87 17 4 0 0 5 5 4 5 4 4 5 0 0 3 0 0 0 0
12 5 29 11 71 64 88 100 92 79 20 59 11 0 0 0 0 0 0 0 3 5 24 91 75 5 2 3 5 5 1 5
54 8 3 5 5 96 100 98 5 3 1 76 10 1 0 0 0 14 58 97 75 66 22 17 11 7 0 0 0 0 0 1
5 7 5 43 9 0 15 0 0 2 100 100 6 4 0 0 13 27 22 81 58 70 92 90 94 39 4 4 4 6 5 4
5 6 0 0 0 0 0 2 0 0 68 71 6 5 0 4 5 43 56 80 100 60 100 100 85 84 45 34 54 80 74 8
0 0 0 0 0 11 47 100 100 57 1 18 92 10 5 42 84 84 70 100 100 100 99 100 100 47 71 98 75 80 84 100
0 0 0 0 2 83 14 51 64 5 5 18 97 88 40 66 97 74 98 94 100 100 100 79 100 48 100 96 100 99 100 96
0 0 0 0 0 0 0 20 43 29 10 5 28 6 27 100 100 99 100 100 100 100 100 100 90 88 100 36 98 91 86 42
0 0 0 0 0 0 0 0 2 67 100 97 81 69 92 100 100 98 100 100 100 100 97 97 98 70 100 72 81 100 100 100
0 0 0 0 2 0 0 1 1 12 96 100 100 100 100 100 80 100 100 100 100 100 99 100 97 40 100 87 90 100 100 100
0 3 3 5 62 100 100 42 39 84 100 100 100 100 99 100 89 98 100 90 94 86 100 100 91 99 100 100 100 100 100 100
0 3 5 8 23 21 4 43 100 100 100 100 100 100 100 88 100 69 100 99 79 98 95 100 100 100 100 100 100 100 98 95
2 1 5 5 21 17 32 44 100 100 100 100 100 100 100 100 100 100 100 100 100 100 100 100 100 69 100 100 100 96 39 99
1 4 3 5 5 5 5 5 5 66 100 100 100 100 49 100 100 100 100 100 100 100 100 100 100 100 100 100 100 100 100 100
20 9 8 5 5 5 52 5 21 75 100 100 100 100 100 100 100 100 100 100 100 100 100 100 100 100 100 100 100 100 100 100

GFSFLT1_prec_cloud_042.txt.gz
Cloud_Cover
100 100 100 100 100 100 100 100 100 100 100 100 100 100 100 100 100 100 100 100 100 100 100 100 84 66 41 6 5 0 0 0
100 74 30 100 99 100 100 100 100 100 100 100 100 100 100 100 100 100 100 86 100 100 94 100 71 5 4 2 0 0 0 0
100 100 100 100 46 12 25 93 100 94 100 100 100 100 95 57 66 64 100 78 65 32 21 31 5 5 0 2 0 0 2 0
100 100 100 100 76 69 96 100 100 100 100 100 95 100 86 100 100 100 94 96 44 90 24 1 4 6 49 76 14 5 5 0
100 100 100 100 100 100 100 100 100 60 100 98 98 100 100 100 100 100 100 76 12 0 5 5 5 66 10 59 97 60 81 8
100 100 100 99 99 99 100 58 78 100 100 99 70 56 39 5 5 2 0 0 1 5 5 5 16 70 91 100 100 98 95 59
88 100 99 97 70 76 61 91 100 100 100 48 34 5 5 5 0 0 4 5 5 5 5 7 98 15 88 75 46 82 85 18
68 7 5 6 5 5 9 12 99 100 76 0 5 36 6 5 5 5 5 5 11 100 100 100 72 93 97 90 26 6 12 41
97 6 1 2 0 11 7 36 100 58 1 0 17 90 26 78 69 94 100 100 100 100 100 100 100 100 99 100 99 56 55 51
14 5 6 74 4 4 0 0 27 0 0 2 74 100 100 100 100 100 100 100 100 100 100 100 100 92 100 100 88 59 5 6
2 10 57 0 1 0 0 0 1 4 0 45 100 100 100 100 100 100 100 100 100 87 100 100 100 99 100 80 92 12 85 59
0 0 0 0 0 0 0 0 94 67 87 83 71 88 84 97 100 100 100 92 100 100 100 94 84 67 44 94 86 88 65 46
0 0 0 0 0 0 0 0 5 5 5 49 70 95 99 100 100 100 100 100 100 100 100 95 95 99 100 98 99 68 100 100
0 0 0 0 0 0 1 0 5 5 19 93 100 100 100 100 100 93 29 6 54 69 46 92 88 95 100 100 100 84 90 97
0 0 3 5 5 30 38 62 97 87 51 85 83 97 100 99 92 99 30 17 71 73 99 84 89 95 100 100 100 95 100 100
0 0 5 3 3 5 87 97 83 53 14 56 93 96 100 90 76 72 79 93 89 100 96 100 100 100 100 100 100 100 100 100
8 5 0 0 2 12 5 81 74 13 100 100 100 39 5 16 90 46 100 100 100 100 100 100 100 100 100 100 100 100 100 100
0 0 0 0 4 5 17 15 20 49 100 97 100 100 88 100 100 99 100 100 100 100 100 100 100 100 100 100 100 100 100 100
3 4 5 5 5 5 8 64 66 88 84 100 100 100 85 99 100 100 100 100 100 100 99 100 100 100 100 100 100 100 100 100

GFSFLT1_prec_cloud_045.txt.gz
Cloud_Cover
100 100 100 100 100 100 100 65 100 100 100 100 100 100 100 100 100 100 100 100 100 100 100 100 100 100 100 66 36 52 18 28
100 100 100 100 100 100 100 100 100 100 100 100 100 100 100 100 100 100 100 100 100 100 100 100 100 16 97 100 100 85 5 0
100 100 100 100 100 100 100 100 100 100 100 100 100 100 100 100 100 100 100 100 99 99 74 42 46 100 100 100 34 2 5 5
100 100 100 100 100 100 100 100 100 100 100 100 100 100 100 100 100 100 89 83 96 72 99 97 100 55 14 3 4 7 5 5
100 100 100 100 100 100 100 100 100 100 100 70 97 92 100 97 98 98 100 100 100 100 61 12 5 5 5 23 5 6 5 54
100 87 15 26 96 98 88 98 86 100 100 99 94 60 67 65 52 59 45 5 5 5 5 5 15 58 55 81 99 100 81 100
99 91 39 34 14 5 9 11 84 96 90 68 30 96 31 21 77 5 5 4 4 5 40 88 97 58 100 100 29 31 96 92
96 100 96 100 98 100 76 70 40 83 80 100 39 26 5 2 6 5 5 56 10 35 90 98 96 86 100 99 41 99 84 62
5 5 48 70 66 100 100 100 100 100 100 100 38 0 6 38 99 100 100 100 87 99 80 78 100 100 99 100 100 98 78 93
5 5 5 5 10 100 100 99 96 100 87 51 1 0 25 4 42 79 100 100 100 100 100 95 100 98 100 100 100 68 73 84
4 1 4 5 7 58 29 7 70 60 2 0 0 2 3 94 100 100 100 100 100 81 92 100 100 100 100 100 97 99 92 99
2 5 4 4 2 14 15 3 3 0 0 0 0 3 26 82 76 54 51 94 90 93 100 100 100 100 92 94 100 99 100 100
0 0 0 0 0 0 0 0 0 2 5 14 54 69 11 41 92 99 100 100 96 30 98 97 99 100 99 100 89 100 100 86
0 0 3 0 0 0 0 0 5 2 5 19 96 54 99 100 100 100 100 94 98 100 100 100 100 100 100 100 100 86 83 81
0 0 0 3 0 5 11 8 16 32 26 7 22 60 91 100 100 100 87 100 100 84 82 93 100 100 98 100 100 100 100 81
5 2 5 5 11 37 6 18 32 24 6 68 84 99 98 100 100 100 100 95 100 100 100 100 100 100 100 89 70 76 98 82
0 5 4 4 4 42 77 38 7 89 91 52 56 100 100 100 100 94 100 100 100 100 100 100 100 100 100 91 10 5 5 5
0 0 1 18 45 5 5 10 62 61 5 61 100 100 100 100 100 100 100 100 100 100 94 92 28 80 63 28 5 5 5 5
5 5 22 5 5 5 5 5 5 5 32 92 89 60 76 100 100 100 100 100 100 100 98 5 19 5 5 5 4 5 5 5

GFSFLT1_prec_cloud_048.txt.gz
Cloud_Cover
94 100 71 81 39 65 95 100 100 100 100 100 100 100 100 100 100 100 100 100 100 100 100 98 49 94 95 100 98 25 88 25
100 100 100 100 99 24 50 98 100 100 100 100 100 100 100 100 100 100 100 100 100 100 100 100 100 100 100 96 100 74 7 42
98 99 100 100 100 100 100 29 30 5 61 98 97 100 94 100 100 100 99 100 100 100 100 100 100 88 65 31 6 6 5 5
100 100 100 100 100 100 100 100 100 100 100 72 66 100 100 100 100 100 100 100 99 100 90 99 67 85 58 7 5 0 5 5
100 100 100 100 100 100 100 100 100 100 100 92 98 89 100 100 99 97 100 100 100 100 99 96 26 18 5 5 5 60 96 76
7 59 88 99 100 100 100 100 100 100 100 100 100 100 100 99 98 76 96 100 100 100 44 4 2 5 16 10 100 88 99 100
100 67 86 96 100 100 100 100 100 100 100 100 100 100 92 8 32 85 93 95 47 5 18 36 50 97 80 70 100 100 100 66
100 90 100 100 84 30 19 89 100 100 100 100 100 100 100 100 93 100 7 28 13 10 45 96 68 100 100 100 84 98 94 84
70 49 31 35 44 13 100 100 100 100 100 100 100 90 100 100 94 65 31 65 76 99 96 100 100 100 36 100 100 90 82 100
88 100 26 68 33 5 64 100 100 100 100 99 72 100 88 100 84 99 100 100 96 100 98 99 28 24 100 100 100 100 93 48
30 5 6 33 54 7 38 96 99 90 42 24 13 100 100 86 64 16 100 100 86 77 64 31 99 100 100 100 100 77 91 70
98 5 4 5 5 5 5 58 99 47 76 100 100 98 98 71 88 100 100 100 95 100 84 100 100 100 100 100 68 100 89 86
2 5 5 5 5 6 18 56 46 66 100 100 100 99 100 100 99 99 100 100 100 94 100 100 100 100 99 81 100 100 95 65
0 4 5 3 4 38 40 26 33 96 100 78 92 69 79 100 100 96 100 100 100 100 100 100 100 100 100 98 97 39 36 78
0 3 5 0 1 4 78 100 98 62 38 58 75 76 44 77 95 100 98 96 100 100 78 100 100 93 100 100 82 93 98 21
0 0 0 4 31 6 5 39 6 5 29 60 61 49 96 100 100 83 100 74 100 100 88 100 100 100 100 100 100 77 39 5
0 0 0 0 3 5 5 5 5 4 9 75 74 95 100 98 80 82 100 97 100 100 100 100 100 100 100 100 100 24 5 5
0 0 1 21 7 5 5 6 38 93 100 96 100 100 100 100 100 93 100 100 100 100 100 100 100 99 100 73 92 13 11 97
1 5 5 5 5 5 27 73 76 62 72 96 100 100 100 100 100 100 100 100 100 100 100 100 100 100 100 100 23 70 100 100

GFSFLT1_prec_cloud_051.txt.gz
Cloud_Cover
96 99 92 73 100 100 100 100 100 100 100 100 100 100 100 100 100 100 100 100 100 100 100 97 100 100 100 68 61 87 98 63
100 93 66 89 92 53 96 97 100 100 100 100 100 100 100 100 100 100 100 100 100 100 100 100 100 95 100 69 6 20 46 91
62 100 100 100 100 100 28 59 58 100 100 100 100 100 100 100 100 100 100 100 100 100 93 37 64 100 100 27 38 5 5 11
100 100 100 100 100 100 100 20 5 12 64 84 79 92 100 100 99 100 100 100 63 96 96 50 99 70 11 9 5 5 23 29
100 100 100 100 100 78 21 86 100 82 52 66 100 91 97 93 100 100 100 100 100 94 99 100 98 67 14 5 5 37 52 75
74 100 100 100 100 100 90 100 100 100 100 73 70 94 17 85 100 100 100 98 100 100 97 75 31 5 30 53 65 97 100 98
100 100 98 100 100 100 100 100 100 100 83 66 97 100 100 100 97 82 56 100 99 92 74 26 74 93 82 96 99 100 100 100
96 100 100 89 100 97 100 100 93 99 96 92 100 100 100 100 100 100 100 100 87 73 63 100 99 98 100 100 100 100 100 95
27 65 58 75 72 64 69 36 95 98 100 100 100 100 100 100 100 100 100 100 100 100 95 92 98 96 99 100 100 100 100 71
79 55 96 11 5 5 22 37 96 100 100 100 100 100 100 96 37 100 100 100 100 100 100 100 100 86 100 100 100 100 100 74
20 60 94 86 5 5 5 5 19 79 100 100 97 62 74 90 100 100 100 100 100 100 100 100 100 100 100 100 100 100 100 100
100 95 7 5 5 4 4 2 5 5 6 42 100 100 100 100 100 100 100 100 100 100 100 100 100 100 100 100 100 100 84 94
100 100 73 68 4 0 0 5 5 8 23 72 100 100 100 100 100 100 100 100 100 100 100 100 100 100 100 100 100 100 100 100
100 100 69 5 5 19 24 18 5 42 75 100 100 100 100 100 100 100 100 100 100 100 100 99 100 100 100 97 81 100 100 100
13 19 10 4 1 3 8 72 100 100 100 100 100 100 100 100 96 75 100 100 100 93 92 100 100 100 100 100 100 94 67 100
5 0 2 0 2 0 3 24 40 72 100 100 100 100 100 100 74 70 100 100 71 99 100 100 100 100 100 100 100 94 100 82
5 0 4 0 0 2 16 19 59 46 60 100 100 91 100 64 100 100 100 31 100 100 100 100 100 100 100 100 100 100 68 13
4 5 5 19 33 26 32 12 4 2 21 49 85 100 100 100 100 100 97 95 100 100 100 100 100 100 95 90 74 5 5 5
3 0 0 0 1 2 3 3 2 17 52 99 100 86 92 94 90 100 100 100 100 100 99 100 99 97 68 26 6 5 5 55

GFSFLT1_prec_cloud_054.txt.gz
Cloud_Cover
100 100 100 100 100 100 100 100 100 100 100 100 100 100 100 100 100 100 100 100 100 96 100 100 100 90 100 100 100 100 100 31
100 100 100 100 100 100 100 95 100 100 100 100 100 100 100 100 100 100 100 100 100 100 100 100 100 100 100 100 100 39 33 38
100 91 98 100 100 100 99 81 80 96 100 100 100 100 100 100 100 100 100 100 100 100 100 100 100 100 99 100 100 7 5 5
100 17 74 100 100 100 100 96 60 70 96 100 100 100 100 100 100 100 100 100 100 100 100 100 85 43 58 100 82 6 38 5
100 100 39 76 100 100 90 76 69 100 100 93 99 62 42 82 100 100 100 100 100 100 100 100 99 92 100 99 25 8 5 5
100 100 100 100 100 100 99 55 29 97 100 100 100 100 99 71 79 97 100 100 100 100 100 100 100 100 90 88 21 5 42 100
92 95 100 100 100 100 100 100 38 69 57 98 94 92 97 60 100 100 100 100 100 100 100 100 100 100 100 100 65 100 91 98
100 100 100 100 100 100 100 100 91 86 5 5 93 100 100 100 100 100 96 100 100 100 100 100 100 100 100 100 100 100 98 100
84 100 100 100 100 100 100 98 92 100 83 32 100 100 100 100 100 100 100 100 100 100 100 100 100 100 100 100 100 100 100 100
45 68 66 45 59 90 98 100 100 77 96 99 100 100 100 100 100 100 100 89 100 100 100 100 100 100 100 100 100 100 100 100
26 5 5 5 5 16 15 65 100 71 45 100 100 100 100 100 100 100 100 100 100 100 100 100 100 100 100 100 100 100 100 100
60 5 5 5 5 5 5 5 8 2 13 54 99 99 100 100 100 100 100 100 100 100 100 100 100 100 100 100 100 100 100 100
74 97 100 76 37 44 10 6 0 2 19 50 97 100 100 100 100 100 100 100 100 100 100 100 100 100 100 100 100 100 100 100
75 100 99 94 100 100 84 70 15 0 22 86 100 100 100 100 100 100 100 100 100 100 100 100 100 100 100 100 100 100 100 100
100 100 93 100 100 100 90 67 84 92 85 100 100 100 100 100 100 100 100 100 100 100 100 100 100 100 100 100 100 100 100 100
89 67 100 100 100 79 34 92 100 100 100 100 100 100 100 100 100 99 94 100 100 100 100 100 100 100 100 100 100 100 100 100
100 100 16 37 93 29 46 64 86 100 100 100 100 100 100 100 83 78 60 85 51 100 100 100 100 100 100 100 95 85 32 53
100 100 91 19 5 5 9 21 37 28 85 98 65 31 43 14 18 28 76 100 70 100 94 100 100 100 100 100 60 6 5 5
72 71 35 5 5 5 1 0 0 1 5 9 11 31 23 83 79 75 26 87 98 97 100 100 100 100 76 60 5 5 5 5

GFSFLT1_prec_cloud_057.txt.gz
Cloud_Cover
93 40 52 13 96 67 97 100 100 100 100 100 100 100 100 100 100 100 100 100 100 100 100 100 100 100 100 100 96 100 100 99
100 100 100 95 97 100 100 100 100 100 100 100 100 100 100 100 100 100 100 100 100 100 100 100 100 100 100 100 100 100 100 98
100 100 100 100 100 100 99 100 100 53 100 100 100 100 100 100 100 100 100 100 100 100 100 100 100 100 100 100 100 100 100 80
100 100 100 100 99 100 100 99 97 100 100 100 100 100 100 100 100 100 100 100 100 100 100 100 100 100 100 100 71 83 100 91
100 100 100 20 44 100 100 100 100 100 100 98 92 59 100 100 100 100 100 100 100 100 100 100 100 100 93 99 100 100 98 94
100 92 100 100 52 91 100 66 100 42 61 35 23 58 76 74 26 66 99 99 98 95 100 100 100 100 100 100 100 99 100 100
100 53 57 91 100 87 26 100 32 58 12 8 15 94 100 100 100 100 100 100 100 100 98 98 100 100 100 100 100 100 100 100
100 92 78 100 92 100 91 72 100 77 99 100 98 64 85 89 73 100 100 96 100 100 90 92 100 100 100 100 100 100 100 97
6 7 99 100 100 100 100 100 72 62 35 94 100 100 95 100 100 100 100 100 100 100 100 100 100 100 100 100 100 100 100 100
49 15 6 46 54 95 95 94 93 100 100 100 95 100 100 100 100 100 100 100 100 100 100 100 100 100 100 100 100 100 100 100
72 86 98 89 88 62 24 77 83 94 71 99 87 90 98 100 100 100 100 100 100 100 100 100 100 100 100 100 100 100 100 100
62 6 50 12 5 10 29 50 34 35 27 100 100 100 99 64 98 100 100 100 100 100 100 100 100 100 100 100 100 100 100 100
34 38 32 5 5 13 54 85 43 66 72 100 100 100 100 100 100 100 100 100 100 100 100 100 100 100 100 100 100 100 100 100
5 5 7 52 54 38 13 8 27 66 98 92 91 100 100 100 100 100 100 100 100 100 100 100 100 100 100 100 100 100 100 100
10 5 5 5 87 100 99 100 100 81 38 51 100 100 100 100 100 100 100 100 100 100 100 100 100 100 100 100 100 100 100 100
99 28 9 25 18 13 98 100 95 79 66 94 100 100 100 100 100 100 100 100 100 100 100 100 100 100 100 100 100 100 100 100
85 25 40 86 52 21 97 100 100 100 100 100 100 100 95 85 91 83 66 59 66 51 94 100 100 100 98 100 100 100 100 72
5 5 24 51 88 90 75 81 79 93 83 60 42 38 33 34 21 52 65 85 98 100 100 100 100 100 100 100 86 34 53 95
0 0 0 10 30 54 6 5 34 69 5 5 6 45 76 91 90 89 100 100 100 100 100 100 100 96 48 14 69 100 69 98

GFSFLT1_prec_cloud_060.txt.gz
Cloud_Cover
35 5 11 13 5 6 87 5 15 99 100 100 100 100 100 100 100 100 100 100 100 100 100 100 100 100 100 100 100 100 100 100
8 75 64 5 5 5 5 5 5 98 100 100 100 100 100 100 100 100 100 100 100 100 100 100 100 100 100 100 100 100 100 100
62 93 98 77 38 42 97 61 5 17 87 7 66 100 100 100 100 100 100 100 100 100 100 100 100 100 100 100 100 100 100 100
100 100 98 88 80 92 34 21 62 12 59 55 99 100 100 100 100 100 100 100 100 100 100 100 100 100 100 100 100 100 100 100
100 100 100 100 100 100 100 100 100 98 99 96 19 91 96 100 100 100 77 100 100 100 100 100 100 100 100 100 100 100 100 100
100 100 100 100 100 94 87 100 100 100 100 100 100 100 100 100 87 85 100 100 100 100 100 100 100 100 100 100 100 100 100 100
78 79 100 100 99 99 91 93 73 96 100 100 99 100 94 46 63 98 100 100 99 100 100 100 100 100 100 100 100 100 100 100
100 42 42 5 37 34 75 58 76 13 32 100 100 60 94 86 79 47 100 93 100 93 98 90 95 98 100 100 100 100 100 100
100 100 100 31 36 67 26 38 6 55 25 33 90 100 96 78 100 91 58 96 100 100 100 100 100 100 100 100 100 100 100 100
25 65 26 11 10 68 19 52 100 100 100 96 97 100 100 60 5 52 46 78 100 100 100 100 95 100 100 100 100 100 100 100
56 34 89 13 5 44 30 5 5 5 6 70 44 98 94 52 92 100 100 92 100 100 100 100 100 100 100 100 100 100 100 100
16 6 8 42 71 6 5 5 5 48 79 99 70 33 22 100 100 100 95 89 100 100 100 100 100 100 100 100 100 100 100 100
60 68 42 22 98 61 95 12 5 5 100 100 100 100 100 100 87 52 100 99 100 100 100 100 100 100 100 100 100 100 100 100
82 55 15 5 11 88 96 99 27 67 98 98 94 100 99 74 100 100 100 100 100 100 100 100 100 100 100 100 100 100 100 100
89 74 45 46 5 5 5 33 12 10 77 66 100 100 76 100 100 100 100 100 100 100 100 100 100 100 100 100 100 100 100 100
6 79 100 90 96 98 12 2 4 7 65 100 88 73 100 100 100 100 100 100 100 100 100 100 100 100 100 100 100 100 100 100
15 0 5 4 0 5 13 26 20 3 21 44 60 100 100 100 97 100 100 100 100 99 72 23 98 90 100 100 100 100 100 91
1 5 78 12 85 94 18 68 100 35 16 76 100 100 98 100 97 100 52 45 26 77 100 97 87 90 83 76 53 5 5 8
0 0 6 1 7 96 72 43 100 97 76 84 58 31 28 49 22 11 67 99 52 73 15 5 5 61 9 6 34 95 62 19

GFSFLT1_prec_cloud_063.txt.gz
Cloud_Cover
100 100 100 87 75 58 55 100 100 100 100 100 100 100 100 100 100 100 100 100 100 100 100 100 100 100 100 100 100 100 100 100
90 74 100 100 100 19 35 98 100 100 100 100 100 100 100 100 100 100 100 100 100 100 100 100 100 100 100 100 100 100 100 100
99 100 53 40 91 85 44 6 100 100 100 100 100 100 100 100 100 100 100 100 100 100 100 100 100 100 100 100 100 100 100 100
93 95 74 7 32 30 50 92 98 98 88 90 100 100 100 100 100 100 100 100 100 100 100 100 100 100 100 100 100 100 100 100
100 100 100 5 46 22 40 28 4 3 5 44 98 100 7 44 92 100 100 100 100 98 100 100 100 92 100 100 100 100 100 100
94 100 33 100 89 100 100 97 80 100 99 100 100 100 79 44 16 8 5 82 100 100 100 100 100 100 100 100 100 100 100 100
61 100 100 5 89 100 100 100 100 100 100 100 100 100 100 91 80 71 79 58 73 65 65 95 100 100 100 100 100 100 100 100
5 96 100 100 100 100 25 37 41 86 82 97 98 100 100 100 100 15 38 18 60 83 93 100 100 93 77 62 100 100 100 100
5 52 99 91 19 20 5 5 5 5 5 5 5 46 44 5 6 18 83 100 86 100 100 100 100 74 27 37 98 100 100 100
5 5 5 5 5 5 5 3 5 5 5 5 5 12 20 99 100 100 100 100 100 100 100 100 100 100 100 99 100 100 100 100
5 6 4 5 5 5 5 5 5 5 5 8 74 100 100 100 100 100 100 100 100 100 100 100 100 100 100 100 100 100 100 100
0 2 5 6 5 5 5 24 91 100 100 47 93 100 98 98 100 100 100 100 100 100 100 100 100 100 100 98 94 100 100 100
0 0 1 32 5 4 3 100 100 100 100 100 100 100 100 100 100 100 100 100 100 100 100 100 100 100 100 100 100 100 100 100
0 0 0 0 0 8 100 100 100 100 100 100 100 100 100 100 100 100 100 100 100 100 100 100 100 100 100 100 100 100 100 100
0 0 0 0 0 0 98 100 100 100 100 100 100 100 100 100 100 100 100 100 100 100 100 100 100 100 100 100 100 100 100 100
0 1 1 0 3 8 47 91 100 100 100 100 100 100 100 100 100 99 100 100 100 100 100 100 100 100 100 100 100 100 100 100
0 0 4 50 0 38 58 68 93 100 100 99 87 100 70 54 72 75 100 100 100 100 100 100 100 99 78 83 84 96 100 96
0 0 0 0 2 1 23 28 50 53 51 60 96 71 45 92 92 100 100 100 100 100 78 33 12 63 49 80 42 38 5 5
0 0 0 0 6 7 0 0 9 71 100 100 86 72 78 100 100 100 100 62 8 2 4 31 36 28 38 13 22 5 5 14

GFSFLT1_prec_cloud_066.txt.gz
Cloud_Cover
5 48 53 100 100 100 100 100 100 100 100 100 100 100 100 100 100 100 100 100 100 100 100 100 100 95 100 100 100 100 100 100
2 4 20 93 100 100 100 100 100 97 100 100 100 100 100 100 100 100 100 100 100 85 97 100 100 100 100 100 100 100 100 100
36 26 45 33 93 97 91 77 18 45 100 100 100 100 100 100 100 100 100 100 100 100 100 100 100 100 100 100 100 100 100 100
6 63 59 61 38 47 34 5 2 1 9 90 100 100 100 100 100 100 100 100 100 100 100 100 100 100 100 100 100 100 100 100
0 58 61 96 35 20 33 48 19 34 100 10 100 100 100 100 100 100 100 100 100 100 100 100 100 100 100 100 100 100 100 80
6 30 83 21 3 46 100 100 100 100 100 100 26 100 100 100 100 100 100 100 100 100 100 100 100 100 100 100 83 99 75 100
53 50 50 94 5 13 89 100 100 100 100 97 81 100 97 100 100 100 100 100 100 98 70 100 100 100 100 62 100 70 95 95
5 76 77 100 97 6 5 86 100 100 100 65 82 72 100 98 36 31 53 95 40 100 75 78 80 97 99 88 70 71 60 95
26 100 72 18 100 22 5 7 6 9 5 90 98 93 99 95 100 96 100 71 87 59 99 100 100 100 95 87 91 54 100 100
4 20 5 4 48 98 25 4 5 5 5 5 5 5 14 100 83 14 85 86 99 100 100 100 100 100 95 55 100 99 100 100
20 1 5 5 27 14 5 10 70 100 100 99 99 79 87 100 59 98 100 100 100 100 100 100 100 100 100 100 100 100 100 100
84 5 5 5 5 38 13 33 100 100 100 100 100 100 100 100 99 100 100 100 100 100 100 100 100 100 100 100 100 100 100 100
0 1 0 0 0 5 98 100 100 100 100 100 100 100 100 100 100 100 100 100 100 100 100 100 100 100 100 100 100 100 100 100
0 0 0 0 0 0 84 100 100 100 100 100 100 100 100 100 100 100 100 100 100 100 100 100 100 100 100 100 100 100 100 100
0 0 0 0 0 0 79 99 100 100 100 100 100 100 100 100 100 100 100 100 100 100 100 100 100 100 100 100 100 100 100 100
2 2 0 8 15 18 63 96 100 100 100 100 100 100 100 100 100 100 100 100 100 100 100 100 100 100 100 100 100 100 100 100
1 2 0 0 48 88 92 22 100 100 100 100 100 100 100 100 100 100 100 100 100 100 100 100 100 100 100 100 100 100 100 100
38 5 0 0 22 98 100 100 89 100 100 100 100 100 100 100 100 100 100 100 100 100 100 100 100 100 99 97 100 100 100 76
5 43 1 0 21 66 100 100 100 100 100 100 100 100 100 100 100 100 100 100 100 100 100 100 57 26 100 100 96 33 5 5

GFSFLT1_prec_cloud_069.txt.gz
Cloud_Cover
2 25 62 100 100 100 100 100 100 100 100 100 100 100 100 100 100 100 100 100 100 100 100 100 100 100 100 100 100 100 100 100
5 39 93 100 100 100 100 100 100 100 100 100 100 100 100 100 100 100 100 100 100 100 100 100 100 100 100 100 100 100 100 100
18 68 72 99 100 100 100 100 100 100 100 100 100 100 100 100 100 100 100 100 100 100 100 100 100 100 100 100 100 100 100 100
40 89 100 94 100 99 83 100 100 100 100 100 100 100 100 100 100 100 100 100 100 100 100 100 100 100 100 100 100 100 100 100
10 54 100 100 90 96 45 65 61 61 100 100 100 100 100 100 100 100 100 100 100 100 100 100 100 100 100 100 100 100 100 100
1 10 36 100 84 36 23 50 7 14 93 99 100 100 100 100 100 100 100 100 100 100 100 100 100 100 100 100 100 100 100 100
5 27 3 61 16 9 38 98 12 4 5 5 5 5 13 12 68 60 70 59 100 100 100 100 100 100 100 100 100 100 100 100
0 5 5 5 9 5 24 38 66 100 92 99 76 67 33 5 7 6 5 14 100 100 100 100 100 100 83 98 84 91 92 7
0 0 5 5 5 5 41 6 2 19 100 42 0 0 3 5 5 30 5 5 90 100 100 100 100 100 100 100 100 100 98 67
0 2 0 0 5 5 91 100 72 5 5 4 5 1 0 3 27 5 78 34 93 100 100 100 100 100 100 100 100 100 100 100
1 1 3 0 5 13 100 91 63 47 49 5 25 20 13 46 55 67 77 100 100 100 100 100 100 100 100 100 100 100 100 100
17 100 6 0 0 2 100 100 91 62 95 100 100 100 100 100 100 100 100 100 100 100 100 100 100 100 100 100 100 100 100 100
4 5 5 0 0 5 10 100 100 100 100 100 100 100 100 100 100 100 100 100 100 100 100 100 100 100 100 100 100 100 100 100
2 18 28 0 0 0 0 27 100 100 100 100 100 100 100 100 100 100 100 100 100 100 100 100 100 100 100 100 100 100 100 100
5 40 75 0 0 0 0 0 35 100 100 100 100 100 60 100 100 100 100 100 100 100 100 100 100 100 100 100 100 100 100 100
5 5 6 0 0 0 0 0 7 18 100 100 100 100 96 100 100 100 100 100 100 100 100 100 100 100 100 100 100 100 100 100
8 5 0 26 99 18 1 0 0 50 100 92 100 100 65 100 100 100 100 100 100 100 100 100 100 100 100 100 100 100 100 100
100 60 12 1 42 6 6 1 3 3 87 77 100 100 100 100 100 100 100 100 100 100 100 100 100 100 100 100 100 100 100 100
100 100 100 56 22 30 40 58 72 79 100 100 100 100 100 100 100 100 100 100 100 100 100 100 100 100 100 100 100 100 100 100

GFSFLT1_prec_cloud_072.txt.gz
Cloud_Cover
41 94 42 97 100 100 100 100 100 100 100 100 100 100 100 100 100 100 100 100 100 100 100 100 100 100 100 100 100 100 100 100
12 75 100 100 100 100 100 100 100 100 100 100 100 100 100 100 100 100 100 100 100 100 100 100 100 100 100 100 100 100 100 100
90 97 100 99 100 86 98 100 100 100 100 100 100 100 100 100 100 100 100 100 100 100 100 100 100 100 100 99 100 100 100 100
100 100 100 100 95 70 62 100 100 100 100 100 100 100 100 100 100 100 100 100 100 100 100 100 100 100 100 100 100 100 100 100
73 100 100 100 98 69 100 100 90 90 100 100 100 100 100 100 100 100 100 100 100 100 100 100 100 100 100 100 100 100 100 100
37 96 100 100 100 100 73 90 53 27 94 100 100 100 100 100 100 100 100 100 100 100 100 100 100 100 100 100 100 100 100 100
0 26 54 100 100 100 95 34 74 82 60 99 100 100 100 100 100 99 100 100 100 100 100 100 100 100 100 100 100 100 100 100
3 44 62 100 100 100 100 79 25 37 5 41 65 100 100 100 100 100 100 100 100 100 100 100 100 100 100 100 55 96 58 90
1 0 2 37 59 71 76 79 13 76 100 91 87 100 99 100 100 100 100 100 100 100 100 100 100 100 98 21 36 30 76 97
5 0 0 0 0 10 35 48 34 5 4 50 100 100 65 5 5 53 93 97 39 5 5 6 21 86 72 71 100 100 100 100
1 4 0 0 0 0 4 62 14 7 5 4 22 6 4 5 5 15 62 48 82 88 94 26 88 50 100 100 96 100 100 91
4 0 3 5 4 0 0 36 76 87 27 9 77 100 100 100 100 100 77 100 100 100 100 100 100 100 100 100 100 100 100 100
6 3 5 5 0 0 0 4 7 100 99 44 75 100 99 100 100 100 77 94 99 100 100 100 100 100 100 100 100 100 100 100
44 86 10 5 0 0 0 0 0 13 8 100 100 100 88 94 99 80 84 97 100 97 100 100 100 100 99 100 100 100 100 100
100 100 11 5 5 0 0 4 0 11 100 100 100 100 87 100 100 100 100 100 100 100 100 100 100 100 100 100 100 100 100 100
100 100 85 25 23 12 0 0 0 0 0 19 100 100 100 55 78 58 100 100 100 100 100 100 100 100 100 100 100 100 100 100
79 99 100 86 8 5 5 0 0 0 0 0 0 33 99 100 100 100 100 100 100 100 100 100 100 100 100 100 100 100 100 100
100 100 100 100 96 98 100 31 1 0 0 0 2 5 71 96 96 89 100 100 100 100 100 100 100 100 100 100 100 100 100 100
73 77 94 96 100 100 44 99 23 14 0 4 2 6 53 94 100 100 100 100 100 100 100 100 100 100 100 100 100 100 100 100

GFSFLT1_prec_cloud_075.txt.gz
Cloud_Cover
96 58 34 100 100 97 100 100 100 100 100 100 100 100 100 100 100 100 100 100 100 100 100 100 100 100 100 100 100 100 100 100
96 97 52 100 100 100 100 100 100 100 100 100 100 100 100 100 100 100 100 100 100 100 100 100 100 100 100 100 100 100 100 100
84 100 100 94 100 100 100 100 100 100 100 100 100 100 100 100 100 100 100 100 100 100 100 100 100 100 100 100 100 100 100 100
100 100 100 93 100 100 100 100 100 100 100 100 100 100 100 100 100 100 100 100 100 100 100 100 100 100 100 100 100 100 100 100
61 100 100 100 96 100 80 100 100 100 100 100 94 100 100 100 100 100 100 100 100 100 100 100 100 100 100 100 100 100 100 100
21 86 96 100 100 100 100 89 100 100 100 98 100 100 100 100 100 100 100 100 100 100 100 100 100 100 100 100 100 100 100 100
14 0 40 98 100 97 100 98 95 69 100 98 97 100 100 100 100 100 100 100 100 100 100 100 100 100 100 100 100 100 100 100
5 7 39 98 100 100 100 76 65 90 100 100 100 100 100 100 100 100 100 100 100 100 100 100 100 100 100 100 100 100 100 100
5 24 21 20 100 100 100 100 52 61 45 100 100 100 100 100 100 100 100 100 100 100 100 100 100 100 100 100 100 100 100 100
2 5 93 4 12 22 71 66 21 35 35 20 100 100 100 100 100 100 100 100 100 100 100 100 100 100 100 100 97 85 94 99
5 1 5 72 1 0 14 0 0 8 23 57 13 50 100 100 100 90 73 68 66 58 88 90 95 54 10 8 29 50 94 100
6 5 5 7 5 5 2 0 1 56 5 49 56 34 47 65 100 100 100 100 100 48 55 100 98 100 99 100 100 100 99 100
5 20 5 5 5 5 5 5 0 1 100 100 98 67 98 82 100 99 66 63 58 79 9 84 100 67 93 100 100 100 100 100
28 5 28 5 26 11 5 5 5 0 0 79 100 100 98 36 69 87 74 33 99 43 94 93 100 100 94 100 100 100 100 100
65 52 5 32 21 99 5 5 5 5 0 0 4 93 81 77 6 11 39 99 100 100 100 96 98 98 82 100 100 100 100 100
100 88 8 71 94 85 86 5 4 5 5 2 0 8 100 88 56 38 44 5 71 26 32 100 100 100 100 100 100 100 100 100
100 100 26 100 100 100 100 100 49 5 5 16 5 0 0 68 100 100 100 61 87 100 100 49 100 100 100 100 100 100 100 100
100 100 100 100 94 96 100 88 96 31 5 7 5 5 4 0 0 0 11 85 100 98 94 100 100 100 100 100 100 100 100 100
100 100 100 100 100 48 94 100 98 100 97 79 83 21 2 4 7 9 20 100 100 100 100 100 100 100 100 100 100 100 100 100

GFSFLT1_prec_cloud_081.txt.gz
Cloud_Cover
0 0 0 0 0 1 99 56 44 66 100 100 100 100 100 100 100 100 100 100 100 100 100 100 100 100 100 100 100 100 100 100
0 0 0 0 0 11 100 68 99 100 100 100 100 100 100 100 100 100 100 100 100 100 100 100 100 100 100 100 100 100 100 100
0 0 0 0 0 20 98 95 99 100 100 100 100 100 100 100 100 100 100 100 100 100 100 100 100 100 100 100 100 100 100 100
0 0 0 0 1 9 89 90 100 100 100 100 100 100 100 100 100 100 100 100 100 100 100 100 100 100 100 100 100 100 100 100
0 0 0 0 0 2 52 63 100 100 100 100 100 100 100 100 100 100 100 100 100 100 100 100 100 100 100 100 100 100 100 100
1 0 0 0 0 0 73 97 100 100 100 100 91 100 100 100 100 100 100 100 100 100 100 100 100 100 100 100 100 100 100 100
93 0 0 0 0 0 5 83 75 100 97 100 38 99 100 100 100 100 100 100 100 100 100 100 100 100 100 100 100 100 100 100
19 0 0 0 0 0 0 20 100 100 88 100 100 100 100 100 100 100 100 100 100 100 100 100 100 100 100 100 100 100 100 100
0 0 22 2 0 0 0 0 38 99 85 98 100 100 100 67 100 100 100 100 100 100 100 100 100 100 100 100 100 100 100 100
0 0 28 100 6 0 0 2 0 47 100 95 100 100 96 96 51 84 100 100 100 100 100 100 100 100 100 100 100 100 100 100
5 0 0 4 2 5 0 2 5 4 44 98 100 100 100 97 67 47 60 81 91 100 100 100 100 100 100 100 100 100 100 100
100 2 0 1 1 5 5 0 0 9 5 31 43 38 57 99 23 23 100 100 100 100 80 75 65 99 100 100 100 100 100 86
100 5 22 19 0 0 4 4 4 0 5 3 0 20 29 20 3 15 12 100 100 100 100 100 100 100 84 6 5 5 5 20
5 0 2 40 0 0 2 5 0 0 5 49 7 2 0 0 8 11 26 45 38 88 100 100 100 100 100 99 5 21 5 5
96 62 4 84 5 5 5 3 3 30 35 40 94 24 4 0 0 3 20 20 4 7 25 66 37 46 58 54 40 42 78 95
96 96 92 54 37 5 5 5 5 89 100 42 10 53 98 49 2 4 2 0 1 4 5 5 5 6 61 53 27 72 85 96
100 100 67 92 100 100 49 5 5 6 82 100 85 5 15 100 100 67 14 72 80 4 2 4 5 3 5 5 74 95 33 100
100 100 100 18 49 98 82 21 46 8 83 66 29 100 73 68 68 9 26 22 45 94 100 99 50 8 5 75 38 100 100 100
100 100 100 100 100 100 99 100 37 52 100 46 73 100 51 41 98 100 100 100 100 100 27 94 100 100 10 5 93 32 98 94

GFSFLT1_prec_cloud_084.txt.gz
Cloud_Cover
0 0 0 0 0 0 0 0 60 95 88 100 100 100 100 100 100 100 100 100 100 100 100 100 100 100 100 100 100 100 100 100
2 0 0 0 0 0 0 1 68 42 100 100 100 100 100 100 100 100 100 100 100 100 100 100 100 100 100 100 100 100 100 100
4 0 0 0 0 0 0 7 82 100 95 98 99 100 100 100 100 100 100 100 100 100 100 100 100 100 100 95 100 100 100 100
0 0 0 0 0 0 0 89 56 68 100 99 100 100 100 100 100 100 100 100 100 100 100 100 100 100 100 100 100 100 100 100
0 0 0 0 0 0 0 100 82 81 100 100 100 100 100 100 100 100 100 100 100 100 100 100 100 100 100 100 100 100 100 100
5 2 97 1 0 0 0 100 86 100 100 91 100 100 100 100 100 100 100 100 100 100 100 100 100 100 100 100 100 100 100 100
5 4 29 0 0 0 0 100 100 100 80 100 85 100 100 100 100 100 100 100 100 100 100 100 100 100 100 100 100 100 100 100
5 5 0 0 1 91 1 100 100 100 100 100 98 94 100 88 100 100 100 100 100 100 100 100 100 100 100 100 100 100 100 100
7 5 5 0 0 100 8 30 100 100 100 100 100 97 100 44 87 100 100 100 100 100 100 100 100 100 100 100 100 100 100 100
93 60 38 5 0 0 0 0 41 100 100 100 100 100 44 99 100 70 100 100 100 100 100 100 100 100 100 100 100 100 100 100
75 5 49 4 0 0 0 0 0 10 100 100 100 100 100 100 100 86 90 100 100 100 100 100 100 100 100 100 100 100 100 100
5 14 14 28 59 0 1 0 0 0 1 91 100 98 100 100 100 98 42 6 34 98 100 100 100 100 100 100 100 100 100 100
6 46 48 72 100 1 0 5 0 0 0 0 36 100 100 100 100 100 82 8 3 21 80 88 77 100 100 100 100 100 100 100
47 5 5 12 84 13 2 6 4 0 0 0 0 47 43 62 79 100 67 5 3 14 79 82 100 63 13 52 92 100 97 94
44 95 6 5 5 5 7 5 3 5 2 0 2 33 100 29 5 21 38 53 16 23 18 3 9 26 79 99 67 15 27 18
100 85 80 79 5 21 48 5 85 91 5 2 0 5 6 81 93 43 88 99 64 14 24 6 5 11 5 5 5 6 5 5
83 100 100 100 100 100 100 93 27 69 5 5 5 5 6 92 31 67 99 100 100 33 28 22 35 10 5 5 5 5 5 5
99 89 100 100 90 88 100 95 12 40 100 98 92 5 5 6 34 8 100 96 92 66 23 100 100 100 100 100 97 85 97 82
100 96 82 87 99 100 100 66 59 98 100 100 98 28 54 7 7 61 100 100 52 76 80 88 77 95 96 100 100 100 96 21

GFSFLT1_prec_cloud_087.txt.gz
Cloud_Cover
5 0 0 0 0 0 0 0 0 42 100 100 100 100 100 100 93 100 100 100 100 100 100 100 100 100 100 100 100 99 100 100
8 0 0 0 0 2 0 0 35 87 100 100 100 100 100 100 100 100 100 100 100 100 100 100 100 100 100 100 100 100 100 100
5 5 0 0 0 0 0 0 15 80 100 100 100 100 100 100 100 100 100 100 100 100 100 100 100 100 100 100 100 97 100 100
13 5 0 0 0 0 0 0 0 85 100 100 100 100 100 100 100 100 100 100 100 100 100 100 100 100 100 100 100 99 100 99
78 6 5 3 11 7 0 0 0 93 100 100 100 100 100 100 100 100 100 100 100 100 100 100 100 100 100 100 100 100 100 100
98 5 0 0 0 0 0 0 0 45 100 100 99 66 100 100 100 100 100 100 100 100 100 100 100 100 100 100 100 100 100 100
93 3 4 1 5 0 0 35 0 100 100 100 100 100 96 94 96 100 100 100 100 100 100 100 100 100 100 100 100 100 100 100
56 6 68 5 5 4 1 3 15 100 100 100 100 98 72 1 91 100 100 100 100 100 100 100 100 100 100 100 100 100 100 100
95 94 100 80 5 5 5 2 0 100 100 100 100 100 98 100 100 80 100 100 100 100 100 100 100 100 100 100 100 100 100 100
100 100 100 100 5 5 3 5 0 92 100 100 100 100 99 99 65 13 99 100 100 100 100 100 97 100 100 100 100 100 100 100
100 100 100 100 19 5 5 3 0 0 100 100 100 98 94 8 11 26 2 88 100 100 100 100 100 100 100 100 100 100 100 100
100 100 100 100 73 5 5 40 3 0 5 98 100 100 100 49 2 27 36 1 83 100 100 100 100 100 100 100 100 100 100 100
100 100 100 100 99 10 5 6 15 1 0 1 99 100 100 60 99 4 24 17 1 8 70 100 100 100 100 100 100 100 100 100
95 78 93 92 62 6 5 10 5 5 0 0 1 91 100 100 64 40 40 3 26 0 1 5 6 54 82 88 97 100 93 99
76 32 83 96 97 97 21 7 5 5 6 5 21 4 16 98 91 69 62 82 41 7 1 0 1 5 5 5 4 5 6 6
100 92 69 96 68 94 90 36 5 5 5 99 100 100 2 5 4 4 23 96 68 28 31 12 1 0 3 5 5 5 10 74
100 100 91 87 27 44 37 79 79 69 44 100 100 98 5 3 3 5 5 5 15 20 52 8 5 1 0 4 5 5 65 82
46 99 100 100 100 100 100 100 100 100 100 98 100 51 5 5 24 11 10 20 5 38 54 93 84 21 22 15 99 38 92 98
100 100 100 100 100 36 63 99 76 69 100 100 100 78 15 96 100 100 100 52 56 17 18 44 78 62 100 63 20 66 49 24

GFSFLT1_prec_cloud_090.txt.gz
Cloud_Cover
100 6 20 5 1 8 29 26 26 89 99 77 83 100 96 46 79 100 100 100 100 100 100 100 100 100 100 100 100 100 99 100
100 49 43 6 45 50 47 40 97 100 100 100 100 100 100 100 96 73 100 100 100 100 100 100 100 100 100 100 100 100 100 90
98 56 15 5 52 39 40 43 100 100 57 60 88 97 100 100 85 88 100 100 100 100 100 100 100 100 100 100 100 100 100 96
100 76 38 11 46 43 39 94 100 98 4 98 99 100 100 100 100 100 100 100 100 100 100 100 100 100 100 100 100 100 100 100
100 100 87 5 9 12 36 77 87 90 17 100 100 100 100 100 100 100 100 100 100 100 100 100 100 100 100 100 100 100 100 100
100 100 39 5 11 31 44 60 65 90 15 100 100 100 79 100 100 100 100 100 100 100 100 100 100 100 100 100 100 100 100 100
100 100 68 22 47 20 50 50 40 71 31 100 100 100 81 64 100 100 100 100 100 100 100 100 100 100 100 100 100 100 100 100
100 100 100 94 27 35 52 47 77 70 44 100 100 100 31 100 94 94 100 100 100 100 100 100 100 100 100 100 100 100 100 100
100 100 100 86 19 99 93 41 66 90 78 80 100 100 95 77 94 97 99 100 100 100 100 100 100 100 100 100 100 100 100 100
100 100 100 100 16 96 100 89 20 45 100 61 66 14 68 0 34 96 25 41 60 100 100 100 100 100 100 100 100 100 100 76
100 100 100 100 100 100 100 100 46 28 100 92 46 100 91 94 50 11 0 0 67 97 99 100 100 100 100 100 100 100 100 63
100 100 100 100 100 100 100 99 99 85 76 94 34 99 100 100 18 0 0 0 0 2 61 100 100 100 100 100 100 100 100 100
100 100 100 98 87 100 100 100 100 100 77 92 6 80 100 100 65 0 0 0 0 0 0 2 21 100 100 100 100 100 100 100
100 100 100 100 100 100 100 100 100 16 5 35 7 41 85 100 100 42 5 0 0 5 0 0 0 2 51 98 100 100 100 100
41 98 100 100 100 100 100 100 100 97 53 32 17 5 8 50 100 100 6 5 5 3 2 3 1 1 0 4 2 18 27 28
100 100 100 100 100 100 100 100 100 100 98 99 74 8 5 100 100 55 100 48 12 28 5 5 5 4 3 2 4 5 5 5
100 100 96 76 100 86 95 100 100 100 100 100 100 100 83 88 100 100 100 17 54 38 84 18 5 70 84 5 5 3 4 5
100 100 98 100 100 100 100 93 90 99 100 100 100 100 100 99 100 100 100 100 88 100 100 100 100 100 11 30 5 43 4 5
100 100 100 98 59 65 100 100 100 100 100 100 100 100 100 100 100 100 100 100 100 100 100 100 100 100 84 98 58 73 36 5

GFSFLT1_prec_cloud_093.txt.gz
Cloud_Cover
0 26 99 11 49 5 23 57 51 41 91 81 64 50 44 100 95 100 100 100 100 100 100 100 100 100 100 100 100 100 100 100
6 100 48 5 6 27 66 100 100 100 100 100 100 100 73 75 100 70 100 100 100 100 100 100 100 100 100 100 92 100 100 100
100 100 41 100 47 66 100 100 100 100 100 100 98 100 64 98 53 68 82 100 100 100 100 100 100 100 100 100 100 100 100 100
100 100 21 100 78 100 100 100 100 100 99 80 92 92 94 93 70 100 59 92 100 100 100 100 100 100 100 100 100 100 100 100
100 100 91 100 100 97 89 100 100 100 44 39 78 61 100 92 68 100 100 100 98 100 100 100 100 100 100 100 100 100 100 100
100 100 7 100 100 90 91 100 100 100 49 10 25 44 69 35 88 100 100 100 100 100 100 100 100 100 100 100 100 100 100 100
100 100 6 100 100 97 100 100 100 100 39 9 1 29 99 80 88 100 100 100 100 100 100 100 100 100 100 100 100 100 100 100
100 100 52 100 100 100 100 100 100 100 65 24 0 29 88 64 58 100 100 100 100 100 100 100 100 100 100 100 100 100 100 100
100 100 7 100 100 100 100 100 100 100 97 28 4 93 49 47 11 95 100 100 100 100 100 100 100 100 100 100 100 100 100 100
100 100 97 100 100 92 66 99 100 100 100 36 7 100 98 0 1 2 53 86 100 100 86 100 100 100 100 100 100 100 100 100
100 100 100 100 100 100 84 35 77 100 100 75 12 87 94 63 0 0 2 4 50 29 39 80 98 100 100 100 100 100 100 100
100 100 100 100 100 100 100 100 94 100 100 100 97 7 4 7 0 0 0 0 3 28 35 38 33 84 100 100 100 100 100 100
100 100 100 96 64 100 100 100 100 100 100 100 100 50 5 5 3 0 0 0 0 0 25 63 44 13 18 87 100 100 100 100
99 100 100 99 32 82 74 100 100 100 100 100 100 90 15 5 2 5 5 2 0 0 1 19 11 0 0 0 0 5 39 91
98 100 100 81 31 100 100 100 100 100 100 100 100 100 37 27 26 5 3 17 4 5 5 5 5 5 0 1 3 0 4 5
100 100 100 100 100 100 100 100 100 100 100 100 100 100 73 39 30 17 16 56 100 99 44 4 5 12 21 11 5 5 4 1
100 100 100 100 100 100 100 100 100 100 100 100 100 100 100 100 100 100 78 70 55 90 100 100 65 21 100 100 100 93 82 5
100 100 100 100 100 100 96 100 100 100 100 100 100 100 100 100 100 100 100 100 100 86 63 81 99 100 100 100 100 100 98 44
100 100 100 100 100 100 99 100 100 100 100 100 100 100 100 100 100 100 100 100 100 100 100 100 100 100 89 82 100 66 60 76

GFSFLT1_prec_cloud_096.txt.gz
Cloud_Cover
5 5 16 0 0 0 6 94 100 63 68 81 72 77 89 100 100 100 100 100 100 100 100 100 100 100 100 100 100 100 100 100
2 5 0 0 4 58 34 99 100 98 100 100 100 100 100 81 100 100 91 100 100 100 100 100 100 100 100 100 100 100 100 100
3 0 0 6 23 99 39 92 100 100 100 100 100 100 100 77 40 51 100 100 100 100 100 100 100 100 100 100 100 100 100 100
0 1 58 95 33 100 49 88 99 100 100 100 100 100 100 90 82 56 72 78 100 100 100 100 100 100 100 100 100 100 100 100
0 5 76 99 58 98 79 95 99 100 100 100 100 100 93 100 59 23 50 13 96 100 100 100 100 100 100 100 100 100 100 100
0 5 100 100 52 99 96 100 100 100 100 100 100 40 3 38 13 62 100 78 14 100 100 100 100 100 100 100 100 100 100 100
27 68 100 70 77 100 100 100 100 100 100 80 13 15 98 96 69 100 100 100 100 97 100 100 100 100 100 100 100 100 100 100
100 29 100 100 82 100 100 100 100 100 100 57 8 0 4 72 84 98 100 100 100 100 97 100 100 100 100 100 100 100 100 100
100 99 100 34 68 100 100 100 100 100 100 62 54 1 0 57 76 63 100 100 100 100 100 100 100 100 100 100 100 100 100 100
66 100 100 99 36 100 100 100 100 100 100 86 90 21 0 1 64 50 100 100 100 100 100 100 100 100 100 100 100 100 100 100
100 100 100 100 92 100 100 100 100 100 100 99 100 100 4 4 0 23 71 100 100 100 100 100 100 100 100 100 100 100 100 100
100 100 100 100 100 100 100 100 100 100 100 100 100 100 96 96 24 2 19 76 79 96 100 100 95 96 90 100 100 99 100 100
100 100 100 100 100 100 100 100 100 100 100 100 100 100 100 100 98 14 0 1 33 0 30 90 100 100 97 100 100 100 100 100
100 100 100 98 100 100 100 100 100 100 100 100 100 100 100 100 100 61 5 5 5 11 18 50 50 98 100 100 100 60 11 45
100 100 100 98 69 94 100 100 100 100 100 100 100 100 100 100 100 100 5 33 16 30 40 31 32 47 100 100 100 59 7 4
100 100 100 100 100 100 100 100 100 100 100 100 100 100 100 100 100 98 95 18 66 16 4 5 7 99 84 90 81 76 55 100
100 100 100 100 100 100 100 100 100 100 100 100 100 100 100 100 96 71 32 17 5 6 9 59 50 5 5 14 73 86 94 100
100 100 100 100 100 100 100 100 100 100 100 100 100 100 100 100 100 100 100 67 44 26 76 41 74 70 75 96 78 84 56 29
100 100 100 100 100 100 100 100 100 100 100 100 100 100 100 100 100 100 100 100 100 99 98 86 96 100 100 100 100 100 96 87

GFSFLT1_prec_cloud_099.txt.gz
Cloud_Cover
5 5 4 5 5 5 2 4 93 100 99 83 90 100 100 100 99 99 100 100 100 100 100 100 100 100 100 100 100 100 100 100
0 5 5 5 5 0 0 6 100 100 100 100 100 100 100 100 100 100 100 100 100 100 100 100 100 100 100 100 100 100 100 100
2 0 2 3 2 0 0 0 100 98 100 100 100 94 100 87 100 100 84 100 100 100 100 100 100 100 100 100 100 100 100 100
0 0 2 1 3 0 0 0 68 90 100 100 100 100 100 100 100 100 100 100 100 100 100 100 100 100 100 100 100 100 100 100
0 0 5 0 0 0 0 4 56 73 100 100 100 34 99 100 100 70 30 50 87 100 100 100 100 100 100 100 100 100 100 100
2 0 0 0 0 0 19 35 81 100 100 99 100 100 100 74 80 36 25 36 21 76 100 100 100 100 100 100 100 100 100 100
0 0 0 0 0 9 47 79 94 100 100 97 100 100 25 24 53 32 38 89 100 57 92 100 100 100 100 100 100 100 100 100
0 0 0 0 0 37 97 100 100 100 100 100 100 58 8 25 50 15 20 64 82 78 100 100 100 100 100 100 100 100 100 100
0 0 0 5 12 80 100 100 100 100 100 100 100 51 4 7 17 23 43 100 100 100 100 100 100 98 100 100 100 100 100 100
0 2 93 22 64 100 100 100 100 100 100 100 96 40 7 14 1 72 63 97 100 100 100 100 100 100 100 100 100 100 100 100
53 100 99 100 91 100 100 100 100 100 100 100 78 38 8 58 13 62 91 100 100 100 100 92 100 100 100 100 100 100 100 100
100 100 100 100 100 89 92 98 100 100 100 100 85 62 29 100 86 48 54 100 100 100 100 99 100 100 100 100 100 100 100 100
100 100 100 100 100 100 100 100 100 100 100 100 100 67 41 30 100 100 100 57 100 100 100 100 100 100 100 100 100 100 100 100
100 100 100 100 100 100 100 100 100 100 100 100 100 99 63 47 100 100 100 100 90 52 63 96 100 100 100 100 100 98 100 100
100 100 100 100 100 100 100 100 100 100 100 100 100 100 100 100 100 100 100 100 100 76 27 25 60 85 100 100 100 100 100 100
100 100 100 100 100 100 100 100 100 100 100 100 100 100 100 100 100 100 100 100 100 100 60 80 24 27 55 69 89 100 100 100
100 100 100 100 100 100 100 100 100 100 100 100 100 100 100 100 100 100 93 93 98 100 96 22 15 7 5 6 20 34 67 100
100 100 100 100 100 100 100 100 100 100 100 100 100 100 100 100 100 100 100 95 80 100 100 90 23 21 81 63 28 41 53 83
100 100 100 100 100 100 100 100 100 100 100 100 100 100 100 100 100 100 100 100 100 100 100 100 98 100 100 96 97 100 100 100

GFSFLT1_prec_cloud_102.txt.gz
Cloud_Cover
74 7 60 3 4 5 1 0 22 96 100 29 22 100 100 100 100 84 45 50 98 72 100 100 100 100 100 100 100 100 100 100
5 5 4 5 5 5 5 2 5 100 100 75 93 100 100 100 75 100 88 69 36 55 100 100 100 100 100 100 100 100 100 100
4 3 5 6 46 100 14 0 0 16 0 0 5 84 100 97 100 99 73 68 59 52 100 100 100 100 100 100 100 100 100 100
100 100 100 92 77 5 5 0 0 23 0 0 35 79 81 100 100 87 100 96 90 88 100 100 100 100 100 100 100 100 100 100
23 5 17 6 5 1 4 0 2 7 5 0 8 5 20 18 94 75 100 66 88 100 100 100 100 100 100 100 100 100 100 100
94 6 5 5 4 5 1 0 5 3 18 1 0 4 5 26 51 100 100 98 81 99 98 100 100 100 100 100 100 100 100 100
18 5 5 1 5 4 0 0 5 3 40 25 2 5 3 15 21 18 78 100 98 100 97 100 100 100 100 100 100 100 100 100
5 6 5 4 5 0 0 0 0 27 100 47 45 5 5 5 7 0 18 100 100 94 81 96 100 100 100 100 100 100 100 100
5 5 5 5 0 0 0 0 0 100 100 85 63 8 15 14 51 0 14 58 99 68 56 55 100 100 100 100 100 100 100 99
74 81 6 4 0 0 0 3 84 100 100 100 84 20 30 23 52 5 38 82 84 100 100 100 100 100 100 100 100 100 100 100
99 77 3 0 0 0 70 99 84 100 100 100 92 80 50 40 26 11 69 78 60 78 100 100 100 100 98 99 100 100 100 100
100 100 59 0 3 60 100 100 100 100 100 100 90 90 89 44 27 39 63 75 59 88 100 100 100 100 100 100 100 100 100 100
100 100 100 84 25 85 100 100 100 100 100 100 99 100 99 42 26 51 99 99 42 100 100 90 100 100 100 100 100 100 100 100
100 100 100 100 100 100 100 100 100 100 100 100 100 100 83 34 100 76 100 100 100 97 100 100 100 100 87 83 99 85 100 100
100 100 100 100 100 100 100 100 100 100 100 100 100 100 99 70 100 100 100 100 100 100 100 100 100 100 79 90 92 86 70 95
100 100 100 100 100 100 100 100 100 100 100 100 100 100 100 100 100 100 100 100 100 100 100 100 100 96 75 73 70 66 47 48
100 100 100 100 100 100 100 100 100 100 100 100 100 100 100 100 100 100 100 100 100 100 100 100 100 100 100 73 84 100 100 100
100 100 100 100 100 100 100 100 100 100 100 100 100 100 100 100 100 100 100 100 100 100 100 100 100 100 100 82 69 100 100 100
100 100 100 100 100 100 100 100 100 100 100 100 100 100 100 100 100 100 100 100 100 100 100 100 100 100 100 100 100 100 100 100

GFSFLT1_prec_cloud_105.txt.gz
Cloud_Cover
100 100 100 100 9 23 51 74 9 22 14 0 0 20 39 1 8 61 100 56 18 99 98 97 92 91 100 100 91 100 100 100
100 100 100 81 20 100 43 5 62 19 62 0 1 31 47 100 89 78 38 50 72 98 73 97 94 100 100 100 100 100 100 100
100 86 17 48 99 93 92 34 5 8 60 36 4 17 94 18 38 83 20 17 16 96 98 94 100 100 100 100 100 100 100 100
89 27 37 97 99 74 100 100 100 96 36 2 10 47 93 64 87 83 46 12 69 100 97 89 100 100 100 100 100 100 100 100
100 99 100 80 72 25 8 5 5 5 6 0 4 0 24 12 49 98 78 90 96 74 83 32 100 100 100 100 100 100 100 100
5 17 43 5 21 5 25 5 5 5 1 1 2 6 7 1 12 52 94 88 100 100 48 87 82 100 100 100 100 100 100 100
66 53 58 96 32 33 13 3 5 2 5 5 0 19 0 0 0 42 85 10 100 100 91 98 75 100 100 100 100 100 100 100
100 98 53 78 5 5 4 13 5 2 0 5 15 21 7 0 0 5 18 67 100 100 47 78 95 100 100 100 100 100 100 100
59 90 100 96 16 19 5 34 5 1 0 1 36 38 26 6 0 5 5 32 94 87 51 81 99 100 100 100 100 100 100 100
22 35 96 70 17 60 5 5 5 0 8 27 92 100 40 21 3 5 5 32 82 100 43 88 67 82 100 100 100 100 100 100
63 78 65 19 11 6 1 14 8 10 49 99 100 100 92 48 50 5 7 48 100 99 81 50 95 100 98 100 100 100 100 100
97 100 99 22 38 96 85 33 55 83 62 100 100 100 100 98 67 12 50 85 100 100 83 90 90 86 100 100 100 100 100 100
72 100 100 100 96 100 100 100 100 99 100 100 100 100 100 100 73 64 100 100 100 100 84 42 100 100 100 100 95 100 100 100
99 97 100 100 100 100 100 100 100 100 100 100 100 100 100 100 100 84 100 100 100 100 92 99 100 100 85 99 100 100 100 100
100 49 100 100 100 100 100 100 100 100 100 100 100 100 100 100 100 99 100 100 100 100 100 100 100 100 100 100 100 100 100 100
100 59 100 100 100 100 100 100 100 100 100 100 100 100 100 100 100 100 100 100 100 100 91 100 97 100 100 100 100 100 100 100
100 100 91 100 100 100 100 100 100 100 100 100 100 100 100 100 100 100 100 100 100 100 100 100 100 100 100 100 100 100 100 100
100 100 100 100 100 100 100 100 100 100 100 100 100 100 100 100 100 100 100 100 100 100 100 100 100 100 100 100 100 100 100 97
100 100 100 100 100 100 100 100 100 100 100 100 100 100 100 100 100 100 100 100 100 100 100 100 100 100 100 100 100 99 100 100

GFSFLT1_prec_cloud_108.txt.gz
Cloud_Cover
100 100 100 100 100 100 97 100 100 100 70 17 2 5 0 0 3 3 4 44 2 0 10 20 60 91 100 77 88 94 100 100
100 100 100 100 100 100 100 100 100 100 69 5 8 5 5 31 31 5 2 37 0 0 1 86 100 79 100 100 100 100 100 100
67 40 93 100 100 100 100 100 100 100 6 5 4 29 100 9 5 4 5 5 0 0 3 97 46 100 100 100 100 100 100 100
96 77 100 100 100 100 100 100 100 100 64 5 24 58 11 11 9 1 5 3 1 0 5 93 41 100 100 100 100 100 100 100
100 100 100 99 85 100 100 100 100 100 100 14 14 5 20 8 5 53 22 1 0 0 6 100 80 99 71 100 100 100 100 100
78 98 100 100 100 100 100 100 100 100 100 100 11 25 6 5 5 8 28 5 0 0 100 92 83 100 57 98 100 100 100 100
50 83 100 100 100 100 100 81 87 33 42 59 5 4 4 5 5 12 5 26 76 81 36 94 100 100 68 97 100 100 100 100
100 100 100 100 99 56 12 5 5 6 54 23 4 5 8 5 5 34 9 1 8 97 98 75 96 100 57 76 100 100 100 100
100 100 100 100 100 100 96 64 5 16 5 5 4 5 42 6 5 59 63 3 0 5 7 62 100 100 99 68 100 100 100 100
100 100 100 100 100 100 100 99 30 28 8 71 11 3 60 6 56 5 7 4 3 5 97 69 73 83 87 87 97 100 100 100
100 100 100 100 100 100 71 40 43 5 5 13 3 0 67 72 100 0 35 3 4 20 8 80 71 80 100 100 100 100 100 100
100 93 100 100 100 100 100 62 19 11 5 11 4 0 100 100 100 53 96 1 5 33 55 48 97 100 100 100 100 100 100 100
93 77 96 100 100 100 100 91 46 26 5 8 7 88 100 100 100 78 96 2 71 35 100 98 87 100 100 100 100 100 100 100
100 91 50 100 100 100 96 100 100 100 100 84 100 100 100 100 100 100 81 100 98 100 100 100 96 93 100 100 100 100 100 100
100 100 100 100 100 100 100 100 100 100 100 100 100 100 100 100 100 99 100 100 100 100 100 100 100 99 88 100 100 94 100 100
100 100 100 100 99 100 100 100 100 100 100 100 100 100 100 100 100 100 100 100 100 100 100 100 100 100 100 100 100 100 100 100
100 100 100 100 100 100 100 100 100 100 100 100 100 100 100 100 100 100 100 100 100 100 100 100 100 100 100 100 100 100 100 100
100 100 100 100 100 100 100 100 100 100 100 100 100 100 100 100 100 100 100 100 100 100 100 100 100 100 100 100 100 100 100 100
100 100 100 100 100 100 100 100 100 100 100 100 100 100 100 100 100 100 100 100 100 100 100 100 100 100 100 100 100 100 100 100

GFSFLT1_prec_cloud_111.txt.gz
Cloud_Cover
3 23 17 100 100 94 34 4 85 100 100 100 100 100 100 75 5 3 4 7 95 7 60 30 53 80 36 86 94 99 100 82
5 78 100 100 78 82 5 5 65 100 100 100 100 5 100 100 97 4 4 4 30 5 24 12 13 26 100 100 100 100 100 94
68 100 100 100 100 100 96 99 100 100 100 32 10 88 100 100 37 5 5 5 1 5 18 15 16 37 89 100 100 100 100 92
21 97 43 67 79 79 92 100 100 100 100 94 32 75 100 90 27 30 51 5 2 5 5 6 52 100 46 97 100 100 100 100
0 0 5 85 99 100 99 27 86 100 100 100 81 80 99 100 26 7 78 5 5 5 5 12 13 18 32 100 100 83 100 100
5 6 5 5 14 98 100 100 100 100 100 100 100 100 100 100 79 20 11 7 31 59 23 32 37 21 76 100 100 100 100 100
17 8 9 68 79 37 100 100 100 100 100 100 100 100 100 47 5 9 29 4 30 47 37 28 34 70 100 100 100 100 100 100
36 39 78 12 5 5 5 60 100 100 100 100 100 100 100 52 12 17 5 11 5 29 56 68 100 100 100 100 100 100 100 100
51 94 77 91 78 95 100 93 34 5 73 100 100 53 6 35 25 100 100 5 6 74 41 50 62 85 98 100 97 78 100 100
100 100 82 76 90 100 100 95 36 7 5 100 100 83 93 88 50 41 30 35 10 6 26 55 74 100 100 97 100 99 100 100
100 100 48 11 90 100 100 100 100 100 15 29 51 5 18 6 97 100 52 96 5 5 13 46 71 76 100 100 100 100 97 100
38 48 62 100 100 100 100 100 100 100 100 6 40 5 29 81 100 100 100 100 14 51 6 60 95 100 84 100 100 100 100 100
100 100 100 100 100 100 100 100 100 100 96 100 95 100 97 82 100 100 100 100 23 12 4 1 89 100 100 100 100 100 100 100
100 100 100 100 100 99 100 100 100 100 98 59 100 100 100 100 100 100 100 100 71 90 26 17 100 100 100 100 100 100 100 89
100 100 100 100 100 100 100 100 100 100 100 100 99 100 52 100 100 100 100 100 100 100 94 100 100 100 100 100 100 100 100 100
100 100 100 100 100 100 100 100 100 100 100 100 100 100 100 100 100 98 100 100 100 100 100 100 100 100 100 100 100 100 100 100
100 100 100 100 100 100 100 100 100 100 100 100 100 100 100 100 61 100 100 100 100 100 100 100 100 100 100 100 100 100 100 100
100 100 100 100 100 100 100 100 100 100 100 100 100 100 100 100 100 100 100 100 100 100 100 100 100 100 100 100 100 100 100 100
100 100 100 100 100 100 100 100 100 100 100 100 100 100 100 100 100 100 100 100 100 100 100 100 100 100 100 100 100 100 100 100

GFSFLT1_prec_cloud_114.txt.gz
Cloud_Cover
37 8 0 0 36 12 0 8 99 100 96 46 47 74 100 100 100 100 100 30 33 100 91 41 17 100 97 88 100 100 100 100
100 100 63 1 5 29 0 0 98 100 100 100 100 5 79 100 100 100 73 9 76 58 55 20 40 100 100 100 100 100 100 100
100 100 100 97 33 0 2 0 25 100 100 100 100 18 45 100 93 70 9 65 10 83 42 18 45 100 100 97 100 100 100 100
99 86 7 3 4 5 5 5 76 100 100 100 100 100 100 100 100 100 9 47 94 72 69 20 41 36 100 100 85 100 100 100
37 27 5 5 2 5 5 8 100 100 100 100 100 10 27 100 100 100 92 100 100 100 84 22 32 58 82 100 67 100 100 100
37 5 5 5 6 14 55 36 89 94 56 100 93 62 95 69 100 100 100 100 100 83 19 27 36 36 15 44 81 100 100 100
12 34 16 97 100 100 5 6 10 86 100 100 100 100 100 100 100 100 100 100 97 95 44 35 30 28 13 18 87 100 100 97
100 100 100 99 92 8 5 10 5 22 92 46 100 100 100 100 100 100 100 100 88 64 83 78 69 34 61 48 99 100 91 92
100 100 100 98 99 34 5 86 100 98 36 97 59 100 100 100 100 100 98 36 77 100 99 89 100 57 85 100 100 100 84 100
75 98 100 100 97 34 34 100 100 100 100 100 42 98 100 100 80 100 100 65 32 100 100 100 90 97 92 100 100 100 100 100
100 100 100 97 100 100 100 100 100 100 100 75 17 10 100 74 100 100 77 90 98 100 100 100 100 99 100 100 100 100 100 100
100 100 100 100 100 88 100 100 100 100 100 100 53 5 86 93 97 100 100 100 100 100 100 100 100 100 97 100 100 93 100 100
100 100 100 100 100 100 100 100 100 100 100 100 100 70 70 74 100 100 100 100 100 100 100 100 100 100 100 100 100 100 100 100
100 100 100 100 100 100 100 100 100 100 100 100 100 100 100 98 100 100 100 100 100 100 100 100 100 100 100 100 100 100 100 100
100 100 100 100 100 100 100 100 100 100 100 100 100 100 100 100 86 93 100 100 100 100 100 100 100 100 100 100 100 100 100 100
100 100 100 100 100 100 100 100 100 100 100 100 100 100 100 100 100 58 100 100 100 100 100 100 100 100 100 100 100 100 100 100
100 100 100 100 100 100 100 100 100 100 100 100 100 100 100 100 100 100 100 100 100 100 100 100 100 100 100 100 100 100 100 100
100 100 100 100 100 100 100 100 100 100 100 100 100 100 100 100 100 100 100 100 100 100 100 100 100 100 100 100 100 100 100 100
100 100 98 100 100 100 100 100 100 100 100 100 100 100 100 100 100 100 100 100 100 100 100 100 100 100 100 100 96 100 100 100

GFSFLT1_prec_cloud_117.txt.gz
Cloud_Cover
24 38 89 27 54 5 5 100 66 90 88 15 36 85 32 96 98 100 100 100 100 55 32 95 100 98 100 100 100 100 100 100
100 100 100 100 78 0 0 5 64 23 77 100 100 100 83 56 99 100 100 100 100 40 46 96 81 88 100 100 100 100 100 100
100 100 100 96 4 5 0 7 9 69 100 100 100 100 100 38 54 100 100 81 68 55 97 100 88 100 100 100 100 100 100 100
100 100 97 4 2 5 3 6 94 73 100 66 92 100 62 98 100 100 100 100 100 100 100 96 99 100 100 100 100 85 100 100
100 100 81 5 5 5 5 7 96 98 90 89 99 80 84 100 100 100 100 91 91 100 100 100 100 100 100 94 100 99 73 100
86 100 100 100 26 7 88 18 59 100 100 85 80 100 100 99 95 100 100 100 92 73 100 100 100 99 100 100 100 100 96 100
5 41 100 100 100 100 100 100 68 100 100 100 97 100 100 100 100 100 100 100 100 100 100 100 100 99 100 100 100 99 100 100
96 92 69 100 100 100 100 100 100 100 100 100 100 100 100 100 100 100 100 100 100 100 100 100 100 98 80 55 99 100 100 100
100 100 100 100 100 100 100 100 100 100 100 100 100 100 100 100 100 100 100 92 76 100 100 100 100 97 44 76 100 100 100 100
100 100 100 100 100 100 100 100 100 100 100 100 100 100 100 100 100 100 100 100 100 100 100 100 100 93 87 100 100 100 100 100
100 100 100 100 100 100 100 100 100 100 100 100 100 100 99 94 97 100 100 100 100 91 100 100 100 93 100 100 100 68 100 100
100 100 100 100 100 100 100 96 100 100 100 100 100 100 84 64 89 83 100 100 90 100 99 100 100 100 100 100 100 40 100 100
100 100 100 100 100 100 100 100 100 100 100 100 100 100 100 100 100 30 36 53 56 78 100 100 100 100 100 99 64 88 100 100
95 100 100 100 100 100 100 100 100 100 100 100 100 100 100 100 100 100 92 72 65 92 100 100 100 100 100 100 59 100 100 100
100 100 100 100 100 100 100 100 100 100 100 100 100 100 100 100 100 100 100 94 98 100 100 100 100 100 100 100 97 100 100 100
100 100 100 100 100 100 100 100 99 100 100 100 100 100 100 100 100 100 100 100 100 100 100 100 100 100 100 100 100 100 100 100
100 100 100 100 100 100 100 100 100 100 100 100 100 100 100 100 100 100 100 100 100 100 100 100 100 100 100 100 99 100 100 100
100 100 100 100 100 100 100 100 100 100 100 100 100 100 100 100 100 100 100 100 100 100 100 100 100 100 100 100 100 100 100 100
100 100 100 100 100 100 100 83 92 81 74 98 100 100 100 100 99 100 100 100 100 100 100 100 100 100 100 100 100 100 100 100

GFSFLT1_prec_cloud_120.txt.gz
Cloud_Cover
1 2 1 0 0 0 0 12 100 43 8 23 30 72 100 99 37 25 79 92 100 100 100 79 72 99 100 100 100 100 100 98
98 97 76 68 8 0 0 12 93 53 76 83 99 100 99 99 93 35 79 100 99 99 100 65 98 100 100 100 100 100 100 100
46 100 99 99 41 5 1 6 100 63 61 96 97 100 98 91 100 88 100 100 56 73 100 98 100 100 100 100 99 100 100 99
0 95 57 77 5 5 0 77 100 90 36 100 100 89 88 100 100 100 92 47 46 93 100 93 100 100 100 100 98 100 99 100
0 54 100 100 4 0 62 100 100 100 100 100 100 100 100 100 98 96 60 60 100 100 100 100 100 100 100 90 100 100 100 100
55 29 82 14 2 11 87 100 100 100 100 100 100 100 99 100 82 96 96 100 100 100 100 100 100 100 100 71 100 100 92 100
100 100 75 47 89 50 100 100 100 100 100 100 100 100 91 96 88 100 78 100 100 100 100 100 100 100 100 100 100 100 91 87
100 100 100 100 100 100 100 100 100 100 100 100 100 100 100 100 100 100 100 100 100 100 100 100 100 100 100 100 100 100 100 100
100 100 100 100 100 100 100 100 100 100 100 100 100 100 100 100 100 100 100 100 100 100 100 100 100 100 100 100 100 100 100 100
100 100 100 100 100 100 100 100 100 100 100 100 100 100 100 100 100 100 100 100 100 100 100 100 100 100 100 100 100 100 100 100
100 100 100 100 100 100 100 100 100 100 100 100 100 100 100 100 100 100 100 100 100 100 100 100 100 100 100 100 100 100 100 100
100 100 100 100 100 100 100 100 100 100 100 100 100 100 100 100 100 98 100 100 100 100 100 100 100 100 100 100 100 100 100 100
100 100 100 100 100 100 100 100 100 100 100 100 100 100 100 100 100 100 100 100 100 100 100 100 100 100 100 100 100 100 100 100
100 100 100 100 100 99 90 95 99 100 100 100 100 100 100 100 100 100 100 100 100 100 100 100 100 100 100 100 100 100 100 100
100 100 100 100 100 99 100 100 88 76 100 100 100 100 100 100 100 100 100 100 100 100 100 100 100 100 100 100 100 100 100 100
100 100 100 100 100 100 100 100 100 98 80 95 100 100 100 100 100 100 100 100 100 100 100 100 100 100 100 100 100 100 100 95
100 100 100 100 100 100 100 73 98 99 100 100 100 100 100 100 100 100 100 100 100 100 100 100 100 100 100 100 100 100 100 100
99 100 100 100 100 100 100 100 100 100 100 97 88 100 100 100 100 100 100 100 100 100 100 100 100 100 100 100 100 100 100 100
100 100 100 100 100 100 100 100 100 100 100 100 100 100 100 100 100 94 100 100 100 100 100 100 100 100 100 100 100 100 100 100

GFSFLT1_prec_cloud_123.txt.gz
Cloud_Cover
66 26 0 0 0 0 0 0 6 3 5 31 38 41 39 62 96 48 98 100 100 100 100 100 100 100 100 100 100 100 96 91
0 11 0 0 0 0 0 36 10 53 17 13 5 8 23 92 10 38 12 43 100 100 100 100 100 100 100 100 100 100 100 90
0 0 5 0 0 0 0 29 87 71 7 4 2 9 17 92 67 81 93 100 74 43 94 100 100 100 100 100 100 100 100 100
0 0 5 0 0 4 5 6 76 100 69 81 89 72 68 91 87 100 100 76 35 6 42 66 100 100 100 100 91 100 100 100
86 40 42 61 62 53 72 5 3 64 100 100 100 58 100 100 100 100 100 100 75 32 52 100 100 100 100 100 100 100 88 100
100 100 100 100 100 100 92 62 54 85 57 100 100 100 99 100 100 100 100 100 100 100 100 100 100 100 100 100 100 100 97 100
100 100 100 100 100 100 100 98 98 100 97 99 100 100 100 100 100 100 100 100 100 100 100 100 100 100 100 100 100 83 100 100
100 100 100 100 100 100 100 100 100 98 100 100 100 100 100 100 100 100 100 100 100 100 100 100 100 100 100 100 100 100 100 100
100 100 100 100 100 100 100 100 100 100 99 100 100 100 100 100 100 100 100 100 100 100 100 100 100 100 100 100 100 100 100 100
100 100 100 100 100 100 100 100 100 100 100 100 100 100 100 100 100 100 100 100 100 100 100 100 100 100 100 100 100 100 100 100
100 100 100 100 100 100 100 100 100 100 100 100 100 100 100 100 100 100 100 100 100 100 100 100 100 100 100 100 100 100 100 100
100 100 100 100 100 100 100 100 100 100 100 100 100 100 100 100 100 100 100 100 100 100 100 100 100 100 100 100 100 100 100 100
100 100 100 100 100 100 100 100 100 100 100 100 100 100 100 100 100 100 100 100 100 100 100 100 100 100 100 100 100 100 100 100
100 100 100 100 100 100 100 100 100 100 100 100 100 100 100 100 100 100 100 100 100 100 100 100 100 100 100 100 100 100 100 100
100 100 100 100 100 100 100 100 100 100 100 100 100 100 100 100 100 100 100 100 100 100 100 100 100 100 100 100 100 100 100 100
100 100 100 100 100 100 100 98 100 100 100 100 99 100 100 100 100 100 100 100 100 100 100 100 100 100 100 100 100 100 100 100
100 100 100 100 100 100 98 97 100 99 76 100 94 99 97 100 96 100 100 100 100 100 100 100 100 100 100 100 100 100 100 100
100 100 100 100 100 100 100 100 100 100 100 100 100 98 92 100 100 100 100 100 100 100 100 100 100 100 100 100 100 100 100 100
100 100 100 100 100 100 100 100 100 100 100 100 100 100 100 95 99 100 100 100 98 100 100 100 100 100 100 100 100 100 100 100

GFSFLT1_prec_cloud_126.txt.gz
Cloud_Cover
100 100 100 100 57 80 100 100 78 95 28 31 3 5 12 3 9 0 0 90 100 100 100 100 100 100 100 100 97 100 100 100
100 100 100 100 100 100 100 87 47 100 19 5 0 0 5 0 6 0 0 84 100 100 60 88 100 100 100 100 98 100 100 100
0 2 88 100 100 100 20 11 24 20 34 5 0 0 3 2 0 0 0 2 76 100 85 100 100 100 100 100 100 100 100 100
60 5 1 4 19 58 5 13 26 26 72 89 20 0 2 7 2 3 5 44 44 92 91 61 54 22 91 100 100 100 100 98
100 100 100 98 96 90 58 28 64 98 94 100 86 99 95 26 8 5 26 21 5 64 92 48 42 100 31 100 100 100 100 100
100 100 100 100 100 100 100 100 100 100 100 92 100 100 100 100 98 85 100 100 75 97 100 42 55 100 98 100 100 100 100 100
100 100 100 100 100 100 100 100 100 100 100 100 100 100 100 100 99 100 100 100 100 100 100 100 100 100 100 100 100 100 100 100
100 100 100 100 100 100 100 100 100 100 100 100 100 100 100 100 90 100 100 100 100 100 100 100 100 100 100 100 100 100 98 100
100 100 100 100 100 100 100 100 100 100 100 100 100 100 100 100 100 100 100 100 100 100 100 100 100 100 100 100 100 100 100 100
100 100 100 100 100 100 100 100 100 100 100 100 100 87 100 100 100 100 100 98 100 100 100 100 100 100 100 100 100 100 100 100
100 100 100 100 100 100 100 100 100 100 100 100 100 100 100 100 94 100 92 100 100 100 100 100 100 100 100 100 100 100 100 100
100 100 100 100 100 100 100 100 100 100 100 100 100 100 100 100 100 100 100 100 100 100 100 100 100 100 100 100 100 100 100 100
100 100 100 100 100 100 100 100 100 100 100 100 100 100 100 100 100 100 100 100 100 100 100 100 100 100 100 100 100 100 100 100
100 100 100 100 100 100 100 100 100 100 100 97 88 100 100 100 100 100 100 100 100 100 100 100 100 100 100 100 100 100 100 100
100 100 100 100 100 100 100 100 100 100 100 100 100 100 100 100 100 100 100 100 100 100 100 100 100 100 100 100 100 100 100 100
100 100 100 100 100 100 100 100 100 100 100 100 100 100 100 100 100 100 100 100 100 100 100 100 100 100 100 100 100 100 100 100
100 100 100 100 100 100 100 100 100 100 100 100 100 100 100 100 100 100 100 100 100 100 100 100 100 100 100 100 100 100 100 100
100 100 100 100 100 100 100 100 99 100 100 100 100 100 100 100 100 100 100 100 100 100 100 100 100 100 100 100 100 100 100 100
100 100 100 100 100 100 100 100 100 82 100 100 100 100 100 100 100 100 100 100 100 100 100 100 100 100 100 100 100 100 100 100